Observation data for Lesley on 11/19/2019      Previous  Date       Current Mesonet Observations  Soil Data  Daily Summary Page  Observations in Plain Language
KLE1 190600Z 05003KT 11/00 A2993 RMK A01 T01060003  RH  049%=      5-min Rain = 0
KLE1 190601Z 05003KT 11/00 A2993 RMK A01 T01060003  RH  049%=      5-min Rain = 0
KLE1 190602Z 05002KT 11/00 A2993 RMK A01 T01060003  RH  049%=      5-min Rain = 0
KLE1 190603Z 23002KT 11/00 A2993 RMK A01 T01060003  RH  049%=      5-min Rain = 0
KLE1 190604Z 24007KT 10/M01 A2993 RMK A01 T00981006  RH  048%=      5-min Rain = 0
KLE1 190605Z 25007KT 08/M01 A2993 RMK A01 T00821012  RH  051%=      5-min Rain = 0
KLE1 190606Z 25006KT 07/M01 A2993 RMK A01 T00711013  RH  055%=      5-min Rain = 0
KLE1 190607Z 26006KT 06/M01 A2994 RMK A01 T00641012  RH  058%=      5-min Rain = 0
KLE1 190608Z 26005KT 06/M01 A2994 RMK A01 T00611010  RH  060%=      5-min Rain = 0
KLE1 190609Z 26005KT 06/M01 A2994 RMK A01 T00611009  RH  061%=      5-min Rain = 0
KLE1 190610Z 26006KT 06/M01 A2994 RMK A01 T00621007  RH  061%=      5-min Rain = 0
KLE1 190611Z 26006KT 06/M01 A2994 RMK A01 T00631006  RH  061%=      5-min Rain = 0
KLE1 190612Z 26006KT 07/M01 A2994 RMK A01 T00651005  RH  061%=      5-min Rain = 0
KLE1 190613Z 26006KT 07/M01 A2994 RMK A01 T00651005  RH  061%=      5-min Rain = 0
KLE1 190614Z 26007KT 07/M01 A2994 RMK A01 T00651005  RH  061%=      5-min Rain = 0
KLE1 190615Z 26007KT 07/M00 A2994 RMK A01 T00651004  RH  061%=      5-min Rain = 0
KLE1 190616Z 27007KT 07/M00 A2994 RMK A01 T00661004  RH  061%=      5-min Rain = 0
KLE1 190617Z 27007KT 07/M00 A2994 RMK A01 T00661003  RH  061%=      5-min Rain = 0
KLE1 190618Z 27007KT 07/M00 A2994 RMK A01 T00651003  RH  061%=      5-min Rain = 0
KLE1 190619Z 27006KT 07/M00 A2994 RMK A01 T00651003  RH  062%=      5-min Rain = 0
KLE1 190620Z 26007KT 07/M00 A2994 RMK A01 T00651003  RH  062%=      5-min Rain = 0
KLE1 190621Z 26007KT 06/M00 A2994 RMK A01 T00641003  RH  062%=      5-min Rain = 0
KLE1 190622Z 26007KT 06/M00 A2994 RMK A01 T00641003  RH  062%=      5-min Rain = 0
KLE1 190623Z 25007KT 06/M00 A2994 RMK A01 T00621003  RH  063%=      5-min Rain = 0
KLE1 190624Z 26008KT 06/M00 A2995 RMK A01 T00611003  RH  064%=      5-min Rain = 0
KLE1 190625Z 26008KT 06/M00 A2995 RMK A01 T00601002  RH  064%=      5-min Rain = 0
KLE1 190626Z 26008KT 06/M00 A2995 RMK A01 T00581002  RH  065%=      5-min Rain = 0
KLE1 190627Z 26008KT 06/M00 A2995 RMK A01 T00581002  RH  065%=      5-min Rain = 0
KLE1 190628Z 27008KT 06/M00 A2995 RMK A01 T00581002  RH  065%=      5-min Rain = 0
KLE1 190629Z 27008KT 06/M00 A2995 RMK A01 T00581002  RH  065%=      5-min Rain = 0
KLE1 190630Z 27007KT 06/M00 A2995 RMK A01 T00581003  RH  065%=      5-min Rain = 0
KLE1 190631Z 27007KT 06/M00 A2995 RMK A01 T00581003  RH  065%=      5-min Rain = 0
KLE1 190632Z 27007KT 06/M00 A2995 RMK A01 T00581003  RH  065%=      5-min Rain = 0
KLE1 190633Z 27007KT 06/M00 A2995 RMK A01 T00591003  RH  065%=      5-min Rain = 0
KLE1 190634Z 27008KT 06/M00 A2995 RMK A01 T00591003  RH  064%=      5-min Rain = 0
KLE1 190635Z 27007KT 06/M00 A2996 RMK A01 T00591003  RH  064%=      5-min Rain = 0
KLE1 190636Z 27008KT 06/M00 A2996 RMK A01 T00591004  RH  064%=      5-min Rain = 0
KLE1 190637Z 27008KT 06/M00 A2996 RMK A01 T00591003  RH  064%=      5-min Rain = 0
KLE1 190638Z 27008KT 06/M00 A2996 RMK A01 T00591004  RH  064%=      5-min Rain = 0
KLE1 190639Z 27009KT 06/M00 A2996 RMK A01 T00591004  RH  064%=      5-min Rain = 0
KLE1 190640Z 28009KT 06/M01 A2996 RMK A01 T00591005  RH  064%=      5-min Rain = 0
KLE1 190641Z 28008KT 06/M00 A2996 RMK A01 T00601004  RH  063%=      5-min Rain = 0
KLE1 190642Z 28008KT 06/M01 A2996 RMK A01 T00611005  RH  063%=      5-min Rain = 0
KLE1 190643Z 28008KT 06/M01 A2996 RMK A01 T00611005  RH  063%=      5-min Rain = 0
KLE1 190644Z 28009KT 06/M01 A2996 RMK A01 T00621005  RH  062%=      5-min Rain = 0
KLE1 190645Z 28009KT 06/M00 A2996 RMK A01 T00621004  RH  062%=      5-min Rain = 0
KLE1 190646Z 29009KT 06/M00 A2997 RMK A01 T00631004  RH  062%=      5-min Rain = 0
KLE1 190647Z 29009KT 06/M00 A2997 RMK A01 T00631004  RH  062%=      5-min Rain = 0
KLE1 190648Z 29009KT 06/M00 A2996 RMK A01 T00641003  RH  062%=      5-min Rain = 0
KLE1 190649Z 29008KT 06/M00 A2996 RMK A01 T00641003  RH  062%=      5-min Rain = 0
KLE1 190650Z 30008KT 07/M00 A2996 RMK A01 T00651002  RH  062%=      5-min Rain = 0
KLE1 190651Z 30008KT 07/M00 A2996 RMK A01 T00661002  RH  062%=      5-min Rain = 0
KLE1 190652Z 30008KT 07/M00 A2996 RMK A01 T00661002  RH  062%=      5-min Rain = 0
KLE1 190653Z 30008KT 07/M00 A2996 RMK A01 T00671001  RH  062%=      5-min Rain = 0
KLE1 190654Z 30008KT 07/M00 A2996 RMK A01 T00661001  RH  062%=      5-min Rain = 0
KLE1 190655Z 30008KT 07/M00 A2996 RMK A01 T00671001  RH  062%=      5-min Rain = 0
KLE1 190656Z 30007KT 07/M00 A2996 RMK A01 T00671001  RH  062%=      5-min Rain = 0
KLE1 190657Z 30008KT 07/00 A2996 RMK A01 T00680000  RH  062%=      5-min Rain = 0
KLE1 190658Z 30008KT 07/00 A2996 RMK A01 T00690001  RH  062%=      5-min Rain = 0
KLE1 190659Z 30008KT 07/00 A2996 RMK A01 T00690001  RH  062%=      5-min Rain = 0
KLE1 190700Z 30007KT 07/00 A2996 RMK A01 T00700002  RH  062%=      5-min Rain = 0
KLE1 190701Z 30007KT 07/00 A2996 RMK A01 T00710002  RH  061%=      5-min Rain = 0
KLE1 190702Z 30007KT 07/00 A2996 RMK A01 T00710002  RH  061%=      5-min Rain = 0
KLE1 190703Z 30007KT 07/00 A2996 RMK A01 T00720002  RH  061%=      5-min Rain = 0
KLE1 190704Z 30007KT 07/00 A2996 RMK A01 T00710002  RH  061%=      5-min Rain = 0
KLE1 190705Z 30007KT 07/00 A2996 RMK A01 T00720002  RH  061%=      5-min Rain = 0
KLE1 190706Z 30007KT 07/00 A2996 RMK A01 T00710002  RH  061%=      5-min Rain = 0
KLE1 190707Z 30007KT 07/00 A2996 RMK A01 T00700001  RH  062%=      5-min Rain = 0
KLE1 190708Z 30007KT 07/00 A2996 RMK A01 T00690002  RH  062%=      5-min Rain = 0
KLE1 190709Z 31007KT 07/00 A2996 RMK A01 T00680001  RH  062%=      5-min Rain = 0
KLE1 190710Z 31006KT 07/00 A2996 RMK A01 T00670001  RH  063%=      5-min Rain = 0
KLE1 190711Z 31007KT 07/00 A2996 RMK A01 T00670001  RH  063%=      5-min Rain = 0
KLE1 190712Z 31007KT 07/00 A2996 RMK A01 T00670002  RH  063%=      5-min Rain = 0
KLE1 190713Z 31008KT 07/00 A2996 RMK A01 T00670002  RH  063%=      5-min Rain = 0
KLE1 190714Z 31007KT 07/00 A2996 RMK A01 T00670002  RH  064%=      5-min Rain = 0
KLE1 190715Z 31007KT 07/00 A2996 RMK A01 T00680003  RH  063%=      5-min Rain = 0
KLE1 190716Z 31008KT 07/00 A2996 RMK A01 T00690003  RH  063%=      5-min Rain = 0
KLE1 190717Z 31007KT 07/00 A2996 RMK A01 T00700003  RH  062%=      5-min Rain = 0
KLE1 190718Z 31007KT 07/00 A2996 RMK A01 T00700003  RH  062%=      5-min Rain = 0
KLE1 190719Z 31007KT 07/00 A2996 RMK A01 T00710003  RH  062%=      5-min Rain = 0
KLE1 190720Z 31007KT 07/00 A2996 RMK A01 T00710003  RH  062%=      5-min Rain = 0
KLE1 190721Z 31007KT 07/00 A2996 RMK A01 T00700002  RH  062%=      5-min Rain = 0
KLE1 190722Z 31006KT 07/00 A2996 RMK A01 T00700002  RH  062%=      5-min Rain = 0
KLE1 190723Z 31007KT 07/00 A2996 RMK A01 T00690002  RH  062%=      5-min Rain = 0
KLE1 190724Z 31007KT 07/00 A2996 RMK A01 T00690002  RH  062%=      5-min Rain = 0
KLE1 190725Z 31007KT 07/00 A2996 RMK A01 T00690001  RH  062%=      5-min Rain = 0
KLE1 190726Z 31008KT 07/00 A2996 RMK A01 T00680001  RH  062%=      5-min Rain = 0
KLE1 190727Z 31007KT 07/00 A2996 RMK A01 T00670001  RH  063%=      5-min Rain = 0
KLE1 190728Z 31007KT 07/00 A2996 RMK A01 T00670001  RH  063%=      5-min Rain = 0
KLE1 190729Z 31007KT 07/00 A2996 RMK A01 T00680001  RH  063%=      5-min Rain = 0
KLE1 190730Z 32007KT 07/00 A2996 RMK A01 T00680001  RH  062%=      5-min Rain = 0
KLE1 190731Z 31007KT 07/00 A2996 RMK A01 T00690001  RH  062%=      5-min Rain = 0
KLE1 190732Z 31007KT 07/00 A2996 RMK A01 T00690001  RH  062%=      5-min Rain = 0
KLE1 190733Z 31007KT 07/00 A2996 RMK A01 T00690001  RH  062%=      5-min Rain = 0
KLE1 190734Z 31007KT 07/00 A2996 RMK A01 T00700001  RH  062%=      5-min Rain = 0
KLE1 190735Z 32007KT 07/00 A2996 RMK A01 T00700001  RH  061%=      5-min Rain = 0
KLE1 190736Z 32007KT 07/00 A2996 RMK A01 T00720002  RH  061%=      5-min Rain = 0
KLE1 190737Z 32007KT 07/00 A2996 RMK A01 T00740002  RH  060%=      5-min Rain = 0
KLE1 190738Z 32007KT 07/00 A2996 RMK A01 T00740002  RH  060%=      5-min Rain = 0
KLE1 190739Z 32007KT 08/00 A2996 RMK A01 T00750002  RH  060%=      5-min Rain = 0
KLE1 190740Z 32007KT 08/00 A2996 RMK A01 T00750003  RH  060%=      5-min Rain = 0
KLE1 190741Z 32007KT 08/00 A2996 RMK A01 T00760004  RH  060%=      5-min Rain = 0
KLE1 190742Z 32007KT 08/00 A2996 RMK A01 T00760004  RH  060%=      5-min Rain = 0
KLE1 190743Z 32006KT 08/00 A2996 RMK A01 T00770004  RH  060%=      5-min Rain = 0
KLE1 190744Z 32005KT 08/00 A2996 RMK A01 T00770004  RH  060%=      5-min Rain = 0
KLE1 190745Z 32005KT 08/00 A2996 RMK A01 T00770003  RH  060%=      5-min Rain = 0
KLE1 190746Z 33006KT 08/00 A2995 RMK A01 T00760002  RH  060%=      5-min Rain = 0
KLE1 190747Z 33006KT 08/00 A2995 RMK A01 T00760003  RH  060%=      5-min Rain = 0
KLE1 190748Z 33006KT 08/00 A2995 RMK A01 T00780004  RH  060%=      5-min Rain = 0
KLE1 190749Z 33005KT 08/00 A2995 RMK A01 T00780003  RH  059%=      5-min Rain = 0
KLE1 190750Z 34005KT 08/00 A2995 RMK A01 T00800004  RH  059%=      5-min Rain = 0
KLE1 190751Z 33005KT 08/01 A2995 RMK A01 T00820006  RH  059%=      5-min Rain = 0
KLE1 190752Z 34005KT 09/01 A2995 RMK A01 T00850008  RH  058%=      5-min Rain = 0
KLE1 190753Z 34005KT 09/01 A2995 RMK A01 T00880008  RH  057%=      5-min Rain = 0
KLE1 190754Z 35005KT 09/01 A2995 RMK A01 T00900008  RH  057%=      5-min Rain = 0
KLE1 190755Z 35005KT 09/01 A2995 RMK A01 T00910009  RH  056%=      5-min Rain = 0
KLE1 190756Z 35006KT 09/01 A2994 RMK A01 T00920009  RH  056%=      5-min Rain = 0
KLE1 190757Z 36006KT 09/01 A2994 RMK A01 T00930009  RH  056%=      5-min Rain = 0
KLE1 190758Z 00005KT 09/01 A2994 RMK A01 T00930008  RH  055%=      5-min Rain = 0
KLE1 190759Z 00005KT 09/01 A2994 RMK A01 T00920008  RH  056%=      5-min Rain = 0
KLE1 190800Z 00005KT 09/01 A2994 RMK A01 T00910007  RH  056%=      5-min Rain = 0
KLE1 190801Z 01004KT 09/01 A2994 RMK A01 T00900007  RH  056%=      5-min Rain = 0
KLE1 190802Z 01003KT 09/01 A2994 RMK A01 T00890007  RH  056%=      5-min Rain = 0
KLE1 190803Z 35001KT 09/01 A2994 RMK A01 T00890006  RH  056%=      5-min Rain = 0
KLE1 190804Z 31001KT 09/01 A2994 RMK A01 T00880006  RH  056%=      5-min Rain = 0
KLE1 190805Z 30002KT 09/00 A2994 RMK A01 T00850004  RH  057%=      5-min Rain = 0
KLE1 190806Z 30002KT 08/00 A2994 RMK A01 T00820001  RH  057%=      5-min Rain = 0
KLE1 190807Z 30002KT 08/00 A2994 RMK A01 T00780000  RH  058%=      5-min Rain = 0
KLE1 190808Z 29002KT 08/00 A2994 RMK A01 T00760000  RH  059%=      5-min Rain = 0
KLE1 190809Z 29002KT 07/00 A2994 RMK A01 T00740000  RH  059%=      5-min Rain = 0
KLE1 190810Z 29003KT 07/00 A2994 RMK A01 T007200-0  RH  060%=      5-min Rain = 0
KLE1 190811Z 30003KT 07/M00 A2995 RMK A01 T00701001  RH  061%=      5-min Rain = 0
KLE1 190812Z 32003KT 07/00 A2995 RMK A01 T006800-0  RH  062%=      5-min Rain = 0
KLE1 190813Z 32003KT 07/00 A2995 RMK A01 T00670000  RH  062%=      5-min Rain = 0
KLE1 190814Z 33004KT 07/00 A2994 RMK A01 T00660000  RH  063%=      5-min Rain = 0
KLE1 190815Z 34005KT 07/00 A2994 RMK A01 T00670001  RH  063%=      5-min Rain = 0
KLE1 190816Z 34005KT 07/00 A2994 RMK A01 T00670001  RH  063%=      5-min Rain = 0
KLE1 190817Z 35005KT 07/00 A2994 RMK A01 T00670002  RH  063%=      5-min Rain = 0
KLE1 190818Z 35005KT 07/00 A2994 RMK A01 T00680002  RH  063%=      5-min Rain = 0
KLE1 190819Z 35005KT 07/00 A2994 RMK A01 T00690002  RH  063%=      5-min Rain = 0
KLE1 190820Z 34004KT 07/00 A2994 RMK A01 T00690002  RH  062%=      5-min Rain = 0
KLE1 190821Z 34004KT 07/00 A2994 RMK A01 T00710003  RH  062%=      5-min Rain = 0
KLE1 190822Z 34004KT 07/00 A2994 RMK A01 T00730003  RH  061%=      5-min Rain = 0
KLE1 190823Z 34005KT 08/00 A2994 RMK A01 T00750003  RH  060%=      5-min Rain = 0
KLE1 190824Z 34004KT 08/00 A2994 RMK A01 T00750003  RH  060%=      5-min Rain = 0
KLE1 190825Z 34004KT 08/00 A2995 RMK A01 T00760003  RH  060%=      5-min Rain = 0
KLE1 190826Z 33004KT 08/00 A2995 RMK A01 T00770004  RH  060%=      5-min Rain = 0
KLE1 190827Z 33004KT 08/00 A2995 RMK A01 T00780004  RH  059%=      5-min Rain = 0
KLE1 190828Z 33004KT 08/01 A2995 RMK A01 T00790005  RH  059%=      5-min Rain = 0
KLE1 190829Z 32004KT 08/00 A2995 RMK A01 T00800004  RH  059%=      5-min Rain = 0
KLE1 190830Z 30004KT 08/00 A2995 RMK A01 T00790002  RH  058%=      5-min Rain = 0
KLE1 190831Z 30003KT 08/00 A2995 RMK A01 T00780001  RH  059%=      5-min Rain = 0
KLE1 190832Z 31004KT 08/00 A2995 RMK A01 T00760002  RH  059%=      5-min Rain = 0
KLE1 190833Z 31004KT 08/00 A2995 RMK A01 T00750002  RH  060%=      5-min Rain = 0
KLE1 190834Z 31004KT 08/00 A2995 RMK A01 T00750001  RH  060%=      5-min Rain = 0
KLE1 190835Z 31003KT 07/00 A2995 RMK A01 T00730001  RH  060%=      5-min Rain = 0
KLE1 190836Z 31003KT 07/00 A2995 RMK A01 T00730001  RH  061%=      5-min Rain = 0
KLE1 190837Z 31003KT 07/00 A2995 RMK A01 T00720001  RH  061%=      5-min Rain = 0
KLE1 190838Z 31004KT 07/00 A2995 RMK A01 T00720002  RH  061%=      5-min Rain = 0
KLE1 190839Z 31004KT 07/00 A2995 RMK A01 T00740003  RH  061%=      5-min Rain = 0
KLE1 190840Z 31004KT 08/00 A2995 RMK A01 T00750003  RH  060%=      5-min Rain = 0
KLE1 190841Z 31004KT 07/00 A2995 RMK A01 T00740002  RH  060%=      5-min Rain = 0
KLE1 190842Z 31004KT 07/00 A2995 RMK A01 T00730001  RH  060%=      5-min Rain = 0
KLE1 190843Z 31004KT 07/00 A2995 RMK A01 T00710001  RH  061%=      5-min Rain = 0
KLE1 190844Z 30004KT 07/00 A2995 RMK A01 T00670000  RH  063%=      5-min Rain = 0
KLE1 190845Z 29005KT 06/00 A2995 RMK A01 T00640000  RH  064%=      5-min Rain = 0
KLE1 190846Z 28004KT 06/00 A2995 RMK A01 T00620000  RH  065%=      5-min Rain = 0
KLE1 190847Z 27004KT 06/00 A2995 RMK A01 T006000-0  RH  065%=      5-min Rain = 0
KLE1 190848Z 27006KT 06/M00 A2995 RMK A01 T00571001  RH  066%=      5-min Rain = 0
KLE1 190849Z 26007KT 06/00 A2996 RMK A01 T005600-0  RH  067%=      5-min Rain = 0
KLE1 190850Z 26009KT 05/00 A2996 RMK A01 T005400-0  RH  068%=      5-min Rain = 0
KLE1 190851Z 26010KT 05/00 A2996 RMK A01 T00530000  RH  069%=      5-min Rain = 0
KLE1 190852Z 26009KT 05/00 A2996 RMK A01 T00510002  RH  070%=      5-min Rain = 0
KLE1 190853Z 26009KT 05/00 A2996 RMK A01 T00510002  RH  071%=      5-min Rain = 0
KLE1 190854Z 26009KT 05/00 A2996 RMK A01 T00520003  RH  071%=      5-min Rain = 0
KLE1 190855Z 26009KT 05/00 A2996 RMK A01 T00520003  RH  071%=      5-min Rain = 0
KLE1 190856Z 26009KT 05/00 A2996 RMK A01 T00530004  RH  070%=      5-min Rain = 0
KLE1 190857Z 26008KT 05/00 A2996 RMK A01 T00530003  RH  070%=      5-min Rain = 0
KLE1 190858Z 27008KT 05/00 A2996 RMK A01 T00530003  RH  070%=      5-min Rain = 0
KLE1 190859Z 27008KT 05/00 A2996 RMK A01 T00540004  RH  070%=      5-min Rain = 0
KLE1 190900Z 27008KT 05/00 A2996 RMK A01 T00540003  RH  070%=      5-min Rain = 0
KLE1 190901Z 27008KT 05/00 A2996 RMK A01 T00540003  RH  070%=      5-min Rain = 0
KLE1 190902Z 27008KT 05/00 A2996 RMK A01 T00540003  RH  070%=      5-min Rain = 0
KLE1 190903Z 27008KT 05/00 A2996 RMK A01 T00540003  RH  070%=      5-min Rain = 0
KLE1 190904Z 27008KT 05/00 A2996 RMK A01 T00540003  RH  070%=      5-min Rain = 0
KLE1 190905Z 27008KT 05/00 A2996 RMK A01 T00540003  RH  070%=      5-min Rain = 0
KLE1 190906Z 27007KT 05/00 A2996 RMK A01 T00540003  RH  070%=      5-min Rain = 0
KLE1 190907Z 28007KT 05/00 A2996 RMK A01 T00540003  RH  070%=      5-min Rain = 0
KLE1 190908Z 28007KT 05/00 A2996 RMK A01 T00540003  RH  069%=      5-min Rain = 0
KLE1 190909Z 28007KT 05/00 A2996 RMK A01 T00540002  RH  069%=      5-min Rain = 0
KLE1 190910Z 28008KT 06/00 A2996 RMK A01 T00550002  RH  069%=      5-min Rain = 0
KLE1 190911Z 28008KT 06/00 A2996 RMK A01 T00550002  RH  069%=      5-min Rain = 0
KLE1 190912Z 29007KT 06/00 A2996 RMK A01 T00550002  RH  069%=      5-min Rain = 0
KLE1 190913Z 29007KT 06/00 A2996 RMK A01 T00550002  RH  069%=      5-min Rain = 0
KLE1 190914Z 29008KT 06/00 A2996 RMK A01 T00550002  RH  069%=      5-min Rain = 0
KLE1 190915Z 29008KT 06/00 A2996 RMK A01 T00550002  RH  069%=      5-min Rain = 0
KLE1 190916Z 29008KT 06/00 A2996 RMK A01 T00550003  RH  069%=      5-min Rain = 0
KLE1 190917Z 29007KT 06/00 A2996 RMK A01 T00550003  RH  069%=      5-min Rain = 0
KLE1 190918Z 29007KT 06/00 A2996 RMK A01 T00550004  RH  069%=      5-min Rain = 0
KLE1 190919Z 29007KT 06/00 A2996 RMK A01 T00550003  RH  069%=      5-min Rain = 0
KLE1 190920Z 29007KT 06/00 A2996 RMK A01 T00560003  RH  069%=      5-min Rain = 0
KLE1 190921Z 29007KT 06/00 A2996 RMK A01 T00560003  RH  069%=      5-min Rain = 0
KLE1 190922Z 29007KT 06/00 A2996 RMK A01 T00560003  RH  069%=      5-min Rain = 0
KLE1 190923Z 29007KT 06/00 A2996 RMK A01 T00560003  RH  069%=      5-min Rain = 0
KLE1 190924Z 29007KT 06/00 A2996 RMK A01 T00560003  RH  069%=      5-min Rain = 0
KLE1 190925Z 29007KT 06/00 A2996 RMK A01 T00560004  RH  069%=      5-min Rain = 0
KLE1 190926Z 29007KT 06/00 A2996 RMK A01 T00560003  RH  069%=      5-min Rain = 0
KLE1 190927Z 29007KT 06/00 A2996 RMK A01 T00560003  RH  069%=      5-min Rain = 0
KLE1 190928Z 29007KT 06/00 A2996 RMK A01 T00570004  RH  069%=      5-min Rain = 0
KLE1 190929Z 29007KT 06/00 A2996 RMK A01 T00570004  RH  069%=      5-min Rain = 0
KLE1 190930Z 29007KT 06/00 A2996 RMK A01 T00570004  RH  069%=      5-min Rain = 0
KLE1 190931Z 29008KT 06/00 A2996 RMK A01 T00580004  RH  068%=      5-min Rain = 0
KLE1 190932Z 29008KT 06/00 A2996 RMK A01 T00580004  RH  068%=      5-min Rain = 0
KLE1 190933Z 29008KT 06/00 A2996 RMK A01 T00580004  RH  068%=      5-min Rain = 0
KLE1 190934Z 28008KT 06/00 A2996 RMK A01 T00570004  RH  069%=      5-min Rain = 0
KLE1 190935Z 28007KT 06/00 A2996 RMK A01 T00570004  RH  069%=      5-min Rain = 0
KLE1 190936Z 28007KT 06/01 A2996 RMK A01 T00580005  RH  069%=      5-min Rain = 0
KLE1 190937Z 28007KT 06/00 A2996 RMK A01 T00570004  RH  069%=      5-min Rain = 0
KLE1 190938Z 28007KT 06/00 A2996 RMK A01 T00570004  RH  069%=      5-min Rain = 0
KLE1 190939Z 28007KT 06/00 A2996 RMK A01 T00560004  RH  069%=      5-min Rain = 0
KLE1 190940Z 28007KT 06/00 A2996 RMK A01 T00560004  RH  069%=      5-min Rain = 0
KLE1 190941Z 28007KT 06/00 A2996 RMK A01 T00550004  RH  069%=      5-min Rain = 0
KLE1 190942Z 28007KT 06/00 A2996 RMK A01 T00550004  RH  070%=      5-min Rain = 0
KLE1 190943Z 28007KT 06/00 A2996 RMK A01 T00550004  RH  070%=      5-min Rain = 0
KLE1 190944Z 28007KT 05/00 A2996 RMK A01 T00540004  RH  070%=      5-min Rain = 0
KLE1 190945Z 28007KT 06/00 A2996 RMK A01 T00550004  RH  070%=      5-min Rain = 0
KLE1 190946Z 28007KT 06/00 A2996 RMK A01 T00550004  RH  070%=      5-min Rain = 0
KLE1 190947Z 28007KT 06/00 A2996 RMK A01 T00550004  RH  070%=      5-min Rain = 0
KLE1 190948Z 28007KT 05/00 A2996 RMK A01 T00540004  RH  070%=      5-min Rain = 0
KLE1 190949Z 28008KT 05/00 A2996 RMK A01 T00540004  RH  070%=      5-min Rain = 0
KLE1 190950Z 28007KT 05/00 A2996 RMK A01 T00540004  RH  070%=      5-min Rain = 0
KLE1 190951Z 28008KT 05/00 A2996 RMK A01 T00540004  RH  070%=      5-min Rain = 0
KLE1 190952Z 28008KT 05/00 A2996 RMK A01 T00540004  RH  070%=      5-min Rain = 0
KLE1 190953Z 28008KT 05/00 A2996 RMK A01 T00540004  RH  070%=      5-min Rain = 0
KLE1 190954Z 28008KT 05/00 A2996 RMK A01 T00540004  RH  070%=      5-min Rain = 0
KLE1 190955Z 28008KT 05/00 A2996 RMK A01 T00540004  RH  070%=      5-min Rain = 0
KLE1 190956Z 28008KT 05/00 A2996 RMK A01 T00540004  RH  070%=      5-min Rain = 0
KLE1 190957Z 28008KT 05/00 A2996 RMK A01 T00540004  RH  070%=      5-min Rain = 0
KLE1 190958Z 28008KT 05/00 A2996 RMK A01 T00540004  RH  070%=      5-min Rain = 0
KLE1 190959Z 28008KT 05/00 A2996 RMK A01 T00530004  RH  070%=      5-min Rain = 0
KLE1 191000Z 28007KT 05/00 A2996 RMK A01 T00530004  RH  071%=      5-min Rain = 0
KLE1 191001Z 28007KT 05/00 A2996 RMK A01 T00530004  RH  071%=      5-min Rain = 0
KLE1 191002Z 28008KT 05/00 A2996 RMK A01 T00530004  RH  071%=      5-min Rain = 0
KLE1 191003Z 29007KT 05/00 A2996 RMK A01 T00530004  RH  071%=      5-min Rain = 0
KLE1 191004Z 29007KT 05/00 A2996 RMK A01 T00530004  RH  071%=      5-min Rain = 0
KLE1 191005Z 29007KT 05/00 A2996 RMK A01 T00530004  RH  071%=      5-min Rain = 0
KLE1 191006Z 29007KT 05/00 A2996 RMK A01 T00530004  RH  071%=      5-min Rain = 0
KLE1 191007Z 29007KT 05/00 A2996 RMK A01 T00530004  RH  071%=      5-min Rain = 0
KLE1 191008Z 29007KT 05/00 A2996 RMK A01 T00520004  RH  071%=      5-min Rain = 0
KLE1 191009Z 28007KT 05/00 A2996 RMK A01 T00520003  RH  071%=      5-min Rain = 0
KLE1 191010Z 28007KT 05/00 A2996 RMK A01 T00520004  RH  071%=      5-min Rain = 0
KLE1 191016Z 28008KT 05/00 A2996 RMK A01 T00520004  RH  071%=      5-min Rain = 0
KLE1 191017Z 28007KT 05/00 A2996 RMK A01 T00510004  RH  071%=      5-min Rain = 0
KLE1 191018Z 28007KT 05/00 A2996 RMK A01 T00510004  RH  072%=      5-min Rain = 0
KLE1 191019Z 28007KT 05/00 A2996 RMK A01 T00510004  RH  072%=      5-min Rain = 0
KLE1 191020Z 29007KT 05/00 A2996 RMK A01 T00500004  RH  072%=      5-min Rain = 0
KLE1 191021Z 29007KT 05/00 A2996 RMK A01 T00500004  RH  072%=      5-min Rain = 0
KLE1 191022Z 28007KT 05/00 A2996 RMK A01 T00500004  RH  072%=      5-min Rain = 0
KLE1 191023Z 28007KT 05/00 A2996 RMK A01 T00500004  RH  072%=      5-min Rain = 0
KLE1 191024Z 28007KT 05/00 A2996 RMK A01 T00500004  RH  072%=      5-min Rain = 0
KLE1 191025Z 28007KT 05/00 A2996 RMK A01 T00500004  RH  072%=      5-min Rain = 0
KLE1 191026Z 28007KT 05/00 A2996 RMK A01 T00500004  RH  072%=      5-min Rain = 0
KLE1 191027Z 28007KT 05/00 A2996 RMK A01 T00500004  RH  072%=      5-min Rain = 0
KLE1 191028Z 28007KT 05/00 A2996 RMK A01 T00500004  RH  072%=      5-min Rain = 0
KLE1 191029Z 29007KT 05/00 A2996 RMK A01 T00500004  RH  072%=      5-min Rain = 0
KLE1 191030Z 29007KT 05/00 A2996 RMK A01 T00500004  RH  072%=      5-min Rain = 0
KLE1 191031Z 29007KT 05/00 A2996 RMK A01 T00500004  RH  072%=      5-min Rain = 0
KLE1 191032Z 28007KT 05/00 A2996 RMK A01 T00500004  RH  072%=      5-min Rain = 0
KLE1 191033Z 28007KT 05/00 A2996 RMK A01 T00500004  RH  072%=      5-min Rain = 0
KLE1 191034Z 28007KT 05/00 A2996 RMK A01 T00490004  RH  072%=      5-min Rain = 0
KLE1 191035Z 28007KT 05/00 A2996 RMK A01 T00490004  RH  073%=      5-min Rain = 0
KLE1 191036Z 28007KT 05/00 A2996 RMK A01 T00490004  RH  073%=      5-min Rain = 0
KLE1 191037Z 28007KT 05/00 A2996 RMK A01 T00480003  RH  073%=      5-min Rain = 0
KLE1 191038Z 28007KT 05/00 A2996 RMK A01 T00480003  RH  073%=      5-min Rain = 0
KLE1 191039Z 28007KT 05/00 A2996 RMK A01 T00480003  RH  073%=      5-min Rain = 0
KLE1 191040Z 28007KT 05/00 A2996 RMK A01 T00470003  RH  073%=      5-min Rain = 0
KLE1 191041Z 29007KT 05/00 A2996 RMK A01 T00470003  RH  073%=      5-min Rain = 0
KLE1 191042Z 29007KT 05/00 A2996 RMK A01 T00460003  RH  073%=      5-min Rain = 0
KLE1 191043Z 29007KT 05/00 A2996 RMK A01 T00460003  RH  073%=      5-min Rain = 0
KLE1 191044Z 29007KT 05/00 A2996 RMK A01 T00460003  RH  074%=      5-min Rain = 0
KLE1 191045Z 29007KT 05/00 A2996 RMK A01 T00460003  RH  074%=      5-min Rain = 0
KLE1 191046Z 29006KT 05/00 A2996 RMK A01 T00450003  RH  074%=      5-min Rain = 0
KLE1 191047Z 29007KT 05/00 A2996 RMK A01 T00460003  RH  074%=      5-min Rain = 0
KLE1 191048Z 29007KT 05/00 A2996 RMK A01 T00460003  RH  074%=      5-min Rain = 0
KLE1 191049Z 29006KT 05/00 A2996 RMK A01 T00460004  RH  074%=      5-min Rain = 0
KLE1 191050Z 29007KT 05/00 A2996 RMK A01 T00470004  RH  074%=      5-min Rain = 0
KLE1 191051Z 29007KT 05/00 A2996 RMK A01 T00470004  RH  074%=      5-min Rain = 0
KLE1 191052Z 29007KT 05/00 A2996 RMK A01 T00470004  RH  074%=      5-min Rain = 0
KLE1 191053Z 29007KT 05/00 A2996 RMK A01 T00480004  RH  073%=      5-min Rain = 0
KLE1 191054Z 29006KT 05/00 A2996 RMK A01 T00480004  RH  073%=      5-min Rain = 0
KLE1 191055Z 29006KT 05/00 A2996 RMK A01 T00480004  RH  073%=      5-min Rain = 0
KLE1 191056Z 29006KT 05/00 A2996 RMK A01 T00480004  RH  073%=      5-min Rain = 0
KLE1 191057Z 29006KT 05/00 A2996 RMK A01 T00480004  RH  073%=      5-min Rain = 0
KLE1 191058Z 28006KT 05/00 A2995 RMK A01 T00490004  RH  073%=      5-min Rain = 0
KLE1 191059Z 28005KT 05/00 A2995 RMK A01 T00480004  RH  073%=      5-min Rain = 0
KLE1 191100Z 28005KT 05/00 A2995 RMK A01 T00480004  RH  073%=      5-min Rain = 0
KLE1 191101Z 28005KT 05/00 A2995 RMK A01 T00490004  RH  073%=      5-min Rain = 0
KLE1 191102Z 27005KT 05/00 A2995 RMK A01 T00490004  RH  073%=      5-min Rain = 0
KLE1 191103Z 27006KT 05/00 A2995 RMK A01 T00490004  RH  073%=      5-min Rain = 0
KLE1 191104Z 27006KT 05/00 A2995 RMK A01 T00490004  RH  072%=      5-min Rain = 0
KLE1 191105Z 27006KT 05/00 A2995 RMK A01 T00490004  RH  072%=      5-min Rain = 0
KLE1 191106Z 27006KT 05/00 A2995 RMK A01 T00480003  RH  073%=      5-min Rain = 0
KLE1 191107Z 27007KT 05/00 A2995 RMK A01 T00470003  RH  073%=      5-min Rain = 0
KLE1 191108Z 26007KT 05/00 A2995 RMK A01 T00460003  RH  073%=      5-min Rain = 0
KLE1 191109Z 26007KT 05/00 A2996 RMK A01 T00460003  RH  074%=      5-min Rain = 0
KLE1 191110Z 26007KT 05/00 A2996 RMK A01 T00460003  RH  074%=      5-min Rain = 0
KLE1 191111Z 26006KT 05/00 A2996 RMK A01 T00460004  RH  074%=      5-min Rain = 0
KLE1 191112Z 26006KT 05/00 A2996 RMK A01 T00470004  RH  074%=      5-min Rain = 0
KLE1 191113Z 27006KT 05/00 A2995 RMK A01 T00470003  RH  073%=      5-min Rain = 0
KLE1 191114Z 27006KT 05/00 A2995 RMK A01 T00470003  RH  073%=      5-min Rain = 0
KLE1 191115Z 27006KT 05/00 A2995 RMK A01 T00480003  RH  073%=      5-min Rain = 0
KLE1 191116Z 27006KT 05/00 A2995 RMK A01 T00480004  RH  073%=      5-min Rain = 0
KLE1 191117Z 27006KT 05/00 A2995 RMK A01 T00490004  RH  073%=      5-min Rain = 0
KLE1 191118Z 27006KT 05/00 A2995 RMK A01 T00490004  RH  072%=      5-min Rain = 0
KLE1 191119Z 27007KT 05/00 A2995 RMK A01 T00490004  RH  072%=      5-min Rain = 0
KLE1 191120Z 27007KT 05/00 A2995 RMK A01 T00480003  RH  073%=      5-min Rain = 0
KLE1 191121Z 27006KT 05/00 A2995 RMK A01 T00480003  RH  073%=      5-min Rain = 0
KLE1 191122Z 28006KT 05/00 A2995 RMK A01 T00480004  RH  073%=      5-min Rain = 0
KLE1 191123Z 28006KT 05/00 A2995 RMK A01 T00480004  RH  073%=      5-min Rain = 0
KLE1 191124Z 28006KT 05/00 A2995 RMK A01 T00480004  RH  073%=      5-min Rain = 0
KLE1 191125Z 28006KT 05/00 A2995 RMK A01 T00480004  RH  073%=      5-min Rain = 0
KLE1 191126Z 28006KT 05/00 A2995 RMK A01 T00480004  RH  073%=      5-min Rain = 0
KLE1 191127Z 28006KT 05/00 A2995 RMK A01 T00480004  RH  073%=      5-min Rain = 0
KLE1 191128Z 28006KT 05/00 A2995 RMK A01 T00480003  RH  073%=      5-min Rain = 0
KLE1 191129Z 29006KT 05/00 A2995 RMK A01 T00490004  RH  073%=      5-min Rain = 0
KLE1 191130Z 29005KT 05/00 A2995 RMK A01 T00490004  RH  073%=      5-min Rain = 0
KLE1 191131Z 29006KT 05/00 A2995 RMK A01 T00480004  RH  073%=      5-min Rain = 0
KLE1 191132Z 30005KT 05/00 A2995 RMK A01 T00480003  RH  073%=      5-min Rain = 0
KLE1 191133Z 30005KT 05/00 A2995 RMK A01 T00470003  RH  073%=      5-min Rain = 0
KLE1 191134Z 30005KT 05/00 A2995 RMK A01 T00480004  RH  073%=      5-min Rain = 0
KLE1 191135Z 30005KT 05/00 A2995 RMK A01 T00470004  RH  073%=      5-min Rain = 0
KLE1 191136Z 29006KT 05/00 A2995 RMK A01 T00470004  RH  073%=      5-min Rain = 0
KLE1 191137Z 29006KT 05/00 A2995 RMK A01 T00470004  RH  073%=      5-min Rain = 0
KLE1 191138Z 29006KT 05/00 A2995 RMK A01 T00470004  RH  073%=      5-min Rain = 0
KLE1 191139Z 29006KT 05/00 A2995 RMK A01 T00470003  RH  074%=      5-min Rain = 0
KLE1 191140Z 29006KT 05/00 A2995 RMK A01 T00460003  RH  074%=      5-min Rain = 0
KLE1 191141Z 29006KT 05/00 A2995 RMK A01 T00460004  RH  074%=      5-min Rain = 0
KLE1 191142Z 29006KT 05/00 A2995 RMK A01 T00460004  RH  074%=      5-min Rain = 0
KLE1 191143Z 29006KT 05/00 A2995 RMK A01 T00470004  RH  074%=      5-min Rain = 0
KLE1 191144Z 30006KT 05/01 A2995 RMK A01 T00480005  RH  074%=      5-min Rain = 0
KLE1 191145Z 30005KT 05/01 A2995 RMK A01 T00480005  RH  073%=      5-min Rain = 0
KLE1 191146Z 31004KT 05/01 A2995 RMK A01 T00490005  RH  073%=      5-min Rain = 0
KLE1 191147Z 31004KT 05/00 A2995 RMK A01 T00490004  RH  073%=      5-min Rain = 0
KLE1 191148Z 31004KT 05/01 A2995 RMK A01 T00500005  RH  073%=      5-min Rain = 0
KLE1 191149Z 31004KT 05/01 A2994 RMK A01 T00500005  RH  073%=      5-min Rain = 0
KLE1 191150Z 31005KT 05/01 A2994 RMK A01 T00510006  RH  073%=      5-min Rain = 0
KLE1 191151Z 31004KT 05/01 A2994 RMK A01 T00520007  RH  072%=      5-min Rain = 0
KLE1 191152Z 31004KT 05/01 A2994 RMK A01 T00540007  RH  072%=      5-min Rain = 0
KLE1 191153Z 31004KT 06/01 A2994 RMK A01 T00550007  RH  071%=      5-min Rain = 0
KLE1 191154Z 31004KT 06/01 A2994 RMK A01 T00560007  RH  071%=      5-min Rain = 0
KLE1 191155Z 30004KT 06/01 A2994 RMK A01 T00560007  RH  071%=      5-min Rain = 0
KLE1 191156Z 30004KT 06/01 A2994 RMK A01 T00560007  RH  070%=      5-min Rain = 0
KLE1 191157Z 30004KT 06/01 A2994 RMK A01 T00570007  RH  070%=      5-min Rain = 0
KLE1 191158Z 30004KT 06/01 A2994 RMK A01 T00570007  RH  070%=      5-min Rain = 0
KLE1 191159Z 30004KT 06/01 A2994 RMK A01 T00570007  RH  070%=      5-min Rain = 0
KLE1 191200Z 29004KT 06/01 A2994 RMK A01 T00570007  RH  070%=      5-min Rain = 0
KLE1 191201Z 29004KT 06/01 A2994 RMK A01 T00570007  RH  070%=      5-min Rain = 0
KLE1 191202Z 29004KT 06/01 A2994 RMK A01 T00560006  RH  070%=      5-min Rain = 0
KLE1 191203Z 29004KT 06/01 A2994 RMK A01 T00550006  RH  070%=      5-min Rain = 0
KLE1 191204Z 29004KT 06/01 A2994 RMK A01 T00550005  RH  071%=      5-min Rain = 0
KLE1 191205Z 30004KT 05/01 A2994 RMK A01 T00540005  RH  071%=      5-min Rain = 0
KLE1 191206Z 30004KT 05/00 A2994 RMK A01 T00520004  RH  071%=      5-min Rain = 0
KLE1 191207Z 30003KT 05/00 A2994 RMK A01 T00500003  RH  072%=      5-min Rain = 0
KLE1 191208Z 30003KT 05/00 A2994 RMK A01 T00480003  RH  072%=      5-min Rain = 0
KLE1 191209Z 30003KT 05/00 A2994 RMK A01 T00470002  RH  073%=      5-min Rain = 0
KLE1 191210Z 30002KT 05/00 A2994 RMK A01 T00460003  RH  073%=      5-min Rain = 0
KLE1 191211Z 30001KT 05/00 A2994 RMK A01 T00450002  RH  074%=      5-min Rain = 0
KLE1 191212Z 30001KT 04/00 A2994 RMK A01 T00440001  RH  074%=      5-min Rain = 0
KLE1 191213Z 30001KT 04/00 A2994 RMK A01 T00430002  RH  075%=      5-min Rain = 0
KLE1 191214Z 34001KT 04/00 A2994 RMK A01 T00420002  RH  075%=      5-min Rain = 0
KLE1 191215Z 35002KT 04/00 A2994 RMK A01 T00420002  RH  076%=      5-min Rain = 0
KLE1 191216Z 35002KT 04/00 A2994 RMK A01 T00430004  RH  076%=      5-min Rain = 0
KLE1 191217Z 35001KT 04/01 A2994 RMK A01 T00440005  RH  076%=      5-min Rain = 0
KLE1 191218Z 00001KT 05/01 A2994 RMK A01 T00460005  RH  075%=      5-min Rain = 0
KLE1 191219Z 00001KT 05/01 A2994 RMK A01 T00460005  RH  074%=      5-min Rain = 0
KLE1 191220Z 01002KT 05/01 A2993 RMK A01 T00460005  RH  074%=      5-min Rain = 0
KLE1 191221Z 02002KT 05/01 A2993 RMK A01 T00470005  RH  074%=      5-min Rain = 0
KLE1 191222Z 01002KT 05/01 A2993 RMK A01 T00470005  RH  074%=      5-min Rain = 0
KLE1 191223Z 00002KT 05/01 A2993 RMK A01 T00480006  RH  074%=      5-min Rain = 0
KLE1 191224Z 00002KT 05/01 A2993 RMK A01 T00490006  RH  074%=      5-min Rain = 0
KLE1 191225Z 36002KT 05/01 A2993 RMK A01 T00500007  RH  073%=      5-min Rain = 0
KLE1 191226Z 35002KT 05/01 A2993 RMK A01 T00510006  RH  073%=      5-min Rain = 0
KLE1 191227Z 35002KT 05/01 A2993 RMK A01 T00510006  RH  073%=      5-min Rain = 0
KLE1 191228Z 34002KT 05/01 A2993 RMK A01 T00510006  RH  073%=      5-min Rain = 0
KLE1 191229Z 35002KT 05/01 A2993 RMK A01 T00520007  RH  072%=      5-min Rain = 0
KLE1 191230Z 35002KT 05/01 A2993 RMK A01 T00520006  RH  072%=      5-min Rain = 0
KLE1 191231Z 00002KT 05/01 A2993 RMK A01 T00530006  RH  072%=      5-min Rain = 0
KLE1 191232Z 01002KT 05/01 A2993 RMK A01 T00520006  RH  072%=      5-min Rain = 0
KLE1 191233Z 01002KT 05/01 A2993 RMK A01 T00530006  RH  072%=      5-min Rain = 0
KLE1 191234Z 02002KT 05/00 A2993 RMK A01 T00530004  RH  071%=      5-min Rain = 0
KLE1 191235Z 03003KT 05/00 A2993 RMK A01 T00520001  RH  070%=      5-min Rain = 0
KLE1 191236Z 03002KT 05/M00 A2993 RMK A01 T00491001  RH  070%=      5-min Rain = 0
KLE1 191237Z 04003KT 05/M00 A2993 RMK A01 T00461002  RH  071%=      5-min Rain = 0
KLE1 191238Z 05003KT 04/M00 A2993 RMK A01 T00441002  RH  072%=      5-min Rain = 0
KLE1 191239Z 05003KT 04/M00 A2993 RMK A01 T00431002  RH  073%=      5-min Rain = 0
KLE1 191240Z 05002KT 04/00 A2993 RMK A01 T004200-0  RH  074%=      5-min Rain = 0
KLE1 191241Z 05001KT 04/00 A2993 RMK A01 T00430000  RH  074%=      5-min Rain = 0
KLE1 191242Z 05000KT 04/00 A2993 RMK A01 T00440002  RH  074%=      5-min Rain = 0
KLE1 191243Z 24000KT 05/00 A2994 RMK A01 T00450001  RH  073%=      5-min Rain = 0
KLE1 191244Z 25001KT 04/M00 A2994 RMK A01 T00421002  RH  073%=      5-min Rain = 0
KLE1 191245Z 24001KT 04/M00 A2993 RMK A01 T00371004  RH  074%=      5-min Rain = 0
KLE1 191246Z 24001KT 04/M00 A2993 RMK A01 T00351003  RH  076%=      5-min Rain = 0
KLE1 191247Z 23000KT 04/M00 A2993 RMK A01 T00351001  RH  077%=      5-min Rain = 0
KLE1 191248Z 00000KT 04/M00 A2993 RMK A01 T00351001  RH  077%=      5-min Rain = 0
KLE1 191249Z 00000KT 04/00 A2993 RMK A01 T00350001  RH  078%=      5-min Rain = 0
KLE1 191250Z 00000KT 04/00 A2993 RMK A01 T00370003  RH  078%=      5-min Rain = 0
KLE1 191251Z 12001KT 04/00 A2993 RMK A01 T00400003  RH  077%=      5-min Rain = 0
KLE1 191252Z 12001KT 04/00 A2993 RMK A01 T00420003  RH  076%=      5-min Rain = 0
KLE1 191253Z 12000KT 05/01 A2993 RMK A01 T00450005  RH  075%=      5-min Rain = 0
KLE1 191254Z 00000KT 05/01 A2993 RMK A01 T00470005  RH  074%=      5-min Rain = 0
KLE1 191255Z 00000KT 05/01 A2993 RMK A01 T00490006  RH  074%=      5-min Rain = 0
KLE1 191256Z 23000KT 05/01 A2993 RMK A01 T00500006  RH  073%=      5-min Rain = 0
KLE1 191257Z 26001KT 05/01 A2993 RMK A01 T00520005  RH  071%=      5-min Rain = 0
KLE1 191258Z 26002KT 05/00 A2993 RMK A01 T00510000  RH  070%=      5-min Rain = 0
KLE1 191259Z 25002KT 05/M00 A2993 RMK A01 T00451004  RH  070%=      5-min Rain = 0
KLE1 191300Z 26003KT 04/M01 A2993 RMK A01 T00401005  RH  072%=      5-min Rain = 0
KLE1 191301Z 27004KT 04/M01 A2993 RMK A01 T00361006  RH  074%=      5-min Rain = 0
KLE1 191302Z 27005KT 03/M01 A2993 RMK A01 T00331007  RH  075%=      5-min Rain = 0
KLE1 191303Z 27005KT 03/M01 A2993 RMK A01 T00311007  RH  076%=      5-min Rain = 0
KLE1 191304Z 26005KT 03/M01 A2993 RMK A01 T00311005  RH  077%=      5-min Rain = 0
KLE1 191305Z 26005KT 03/M00 A2993 RMK A01 T00321003  RH  078%=      5-min Rain = 0
KLE1 191306Z 26004KT 03/M00 A2993 RMK A01 T00331003  RH  077%=      5-min Rain = 0
KLE1 191307Z 27005KT 03/M00 A2993 RMK A01 T00321003  RH  077%=      5-min Rain = 0
KLE1 191308Z 27005KT 03/M00 A2993 RMK A01 T00321002  RH  078%=      5-min Rain = 0
KLE1 191309Z 27005KT 03/M00 A2993 RMK A01 T00321002  RH  078%=      5-min Rain = 0
KLE1 191310Z 28004KT 03/M00 A2993 RMK A01 T00321002  RH  078%=      5-min Rain = 0
KLE1 191311Z 28005KT 03/M00 A2993 RMK A01 T00311003  RH  078%=      5-min Rain = 0
KLE1 191312Z 28005KT 03/M00 A2993 RMK A01 T00311002  RH  079%=      5-min Rain = 0
KLE1 191313Z 28005KT 03/M00 A2994 RMK A01 T00311003  RH  079%=      5-min Rain = 0
KLE1 191314Z 28005KT 03/M00 A2994 RMK A01 T00301003  RH  079%=      5-min Rain = 0
KLE1 191315Z 27006KT 03/M00 A2994 RMK A01 T00291004  RH  079%=      5-min Rain = 0
KLE1 191316Z 27006KT 03/M01 A2994 RMK A01 T00281005  RH  079%=      5-min Rain = 0
KLE1 191317Z 28006KT 03/M01 A2994 RMK A01 T00271005  RH  079%=      5-min Rain = 0
KLE1 191318Z 28006KT 03/M01 A2994 RMK A01 T00261006  RH  080%=      5-min Rain = 0
KLE1 191319Z 28006KT 03/M01 A2994 RMK A01 T00251006  RH  080%=      5-min Rain = 0
KLE1 191320Z 28006KT 02/M01 A2994 RMK A01 T00241006  RH  081%=      5-min Rain = 0
KLE1 191321Z 28006KT 02/M01 A2994 RMK A01 T00231006  RH  081%=      5-min Rain = 0
KLE1 191322Z 28006KT 02/M01 A2994 RMK A01 T00231006  RH  081%=      5-min Rain = 0
KLE1 191323Z 28006KT 02/M01 A2994 RMK A01 T00221006  RH  082%=      5-min Rain = 0
KLE1 191324Z 28006KT 02/M01 A2994 RMK A01 T00221006  RH  082%=      5-min Rain = 0
KLE1 191325Z 27005KT 02/M01 A2994 RMK A01 T00221006  RH  082%=      5-min Rain = 0
KLE1 191326Z 27005KT 02/M01 A2994 RMK A01 T00211006  RH  082%=      5-min Rain = 0
KLE1 191327Z 28006KT 02/M01 A2994 RMK A01 T00211007  RH  082%=      5-min Rain = 0
KLE1 191328Z 28006KT 02/M01 A2994 RMK A01 T00211007  RH  082%=      5-min Rain = 0
KLE1 191329Z 28006KT 02/M01 A2994 RMK A01 T00211006  RH  082%=      5-min Rain = 0
KLE1 191330Z 28005KT 02/M01 A2994 RMK A01 T00211006  RH  082%=      5-min Rain = 0
KLE1 191331Z 28006KT 02/M01 A2994 RMK A01 T00211006  RH  082%=      5-min Rain = 0
KLE1 191332Z 28006KT 02/M01 A2994 RMK A01 T00211007  RH  082%=      5-min Rain = 0
KLE1 191333Z 28006KT 02/M01 A2994 RMK A01 T00211006  RH  082%=      5-min Rain = 0
KLE1 191334Z 28006KT 02/M01 A2994 RMK A01 T00221006  RH  082%=      5-min Rain = 0
KLE1 191335Z 28006KT 02/M01 A2994 RMK A01 T00221006  RH  082%=      5-min Rain = 0
KLE1 191336Z 28006KT 02/M01 A2994 RMK A01 T00221006  RH  082%=      5-min Rain = 0
KLE1 191337Z 28006KT 02/M01 A2994 RMK A01 T00231006  RH  082%=      5-min Rain = 0
KLE1 191338Z 28006KT 02/M01 A2994 RMK A01 T00231006  RH  082%=      5-min Rain = 0
KLE1 191339Z 28006KT 02/M01 A2994 RMK A01 T00231005  RH  081%=      5-min Rain = 0
KLE1 191340Z 28006KT 02/M01 A2994 RMK A01 T00241005  RH  081%=      5-min Rain = 0
KLE1 191341Z 28006KT 02/M01 A2994 RMK A01 T00241006  RH  081%=      5-min Rain = 0
KLE1 191342Z 28006KT 02/M01 A2994 RMK A01 T00241006  RH  081%=      5-min Rain = 0
KLE1 191343Z 28007KT 02/M01 A2994 RMK A01 T00241005  RH  081%=      5-min Rain = 0
KLE1 191344Z 29007KT 02/M01 A2994 RMK A01 T00241005  RH  081%=      5-min Rain = 0
KLE1 191345Z 29007KT 02/M01 A2994 RMK A01 T00241005  RH  082%=      5-min Rain = 0
KLE1 191346Z 29007KT 02/M00 A2994 RMK A01 T00241004  RH  082%=      5-min Rain = 0
KLE1 191347Z 29007KT 03/M00 A2994 RMK A01 T00251003  RH  082%=      5-min Rain = 0
KLE1 191348Z 29007KT 03/M00 A2994 RMK A01 T00261003  RH  082%=      5-min Rain = 0
KLE1 191349Z 29007KT 03/M00 A2994 RMK A01 T00261003  RH  081%=      5-min Rain = 0
KLE1 191350Z 28007KT 03/M00 A2994 RMK A01 T00271003  RH  081%=      5-min Rain = 0
KLE1 191351Z 28006KT 03/M00 A2994 RMK A01 T00271002  RH  081%=      5-min Rain = 0
KLE1 191352Z 28006KT 03/M00 A2994 RMK A01 T00281002  RH  081%=      5-min Rain = 0
KLE1 191353Z 28006KT 03/M00 A2994 RMK A01 T00291001  RH  081%=      5-min Rain = 0
KLE1 191354Z 27007KT 03/M00 A2994 RMK A01 T00291001  RH  081%=      5-min Rain = 0
KLE1 191355Z 27007KT 03/00 A2994 RMK A01 T00300000  RH  081%=      5-min Rain = 0
KLE1 191356Z 27007KT 03/00 A2995 RMK A01 T00310001  RH  080%=      5-min Rain = 0
KLE1 191357Z 27007KT 03/00 A2995 RMK A01 T00310001  RH  080%=      5-min Rain = 0
KLE1 191358Z 27007KT 03/00 A2995 RMK A01 T00320001  RH  080%=      5-min Rain = 0
KLE1 191359Z 27007KT 03/00 A2995 RMK A01 T00320001  RH  080%=      5-min Rain = 0
KLE1 191400Z 28007KT 03/00 A2995 RMK A01 T00330001  RH  079%=      5-min Rain = 0
KLE1 191401Z 28008KT 03/00 A2995 RMK A01 T00340001  RH  079%=      5-min Rain = 0
KLE1 191402Z 28008KT 04/00 A2995 RMK A01 T00350001  RH  079%=      5-min Rain = 0
KLE1 191403Z 28008KT 04/00 A2995 RMK A01 T00350001  RH  079%=      5-min Rain = 0
KLE1 191404Z 28007KT 04/00 A2995 RMK A01 T00360002  RH  078%=      5-min Rain = 0
KLE1 191405Z 28007KT 04/00 A2995 RMK A01 T00360002  RH  078%=      5-min Rain = 0
KLE1 191406Z 29008KT 04/00 A2995 RMK A01 T00370002  RH  078%=      5-min Rain = 0
KLE1 191407Z 28008KT 04/00 A2995 RMK A01 T00380003  RH  078%=      5-min Rain = 0
KLE1 191408Z 29007KT 04/00 A2995 RMK A01 T00380003  RH  078%=      5-min Rain = 0
KLE1 191409Z 29007KT 04/00 A2995 RMK A01 T00390004  RH  078%=      5-min Rain = 0
KLE1 191410Z 29007KT 04/00 A2995 RMK A01 T00400004  RH  078%=      5-min Rain = 0
KLE1 191411Z 29007KT 04/01 A2995 RMK A01 T00410005  RH  077%=      5-min Rain = 0
KLE1 191412Z 30007KT 04/01 A2995 RMK A01 T00420006  RH  077%=      5-min Rain = 0
KLE1 191413Z 29007KT 04/01 A2995 RMK A01 T00430006  RH  077%=      5-min Rain = 0
KLE1 191414Z 29007KT 04/01 A2995 RMK A01 T00440005  RH  076%=      5-min Rain = 0
KLE1 191415Z 29006KT 05/01 A2995 RMK A01 T00450005  RH  076%=      5-min Rain = 0
KLE1 191416Z 29006KT 05/01 A2995 RMK A01 T00450006  RH  076%=      5-min Rain = 0
KLE1 191417Z 29006KT 05/01 A2995 RMK A01 T00460006  RH  075%=      5-min Rain = 0
KLE1 191418Z 29006KT 05/01 A2995 RMK A01 T00470007  RH  075%=      5-min Rain = 0
KLE1 191419Z 29007KT 05/01 A2995 RMK A01 T00480008  RH  075%=      5-min Rain = 0
KLE1 191420Z 29006KT 05/01 A2995 RMK A01 T00490008  RH  075%=      5-min Rain = 0
KLE1 191421Z 29007KT 05/01 A2995 RMK A01 T00500008  RH  074%=      5-min Rain = 0
KLE1 191422Z 29006KT 05/01 A2995 RMK A01 T00510008  RH  074%=      5-min Rain = 0
KLE1 191423Z 29006KT 05/01 A2995 RMK A01 T00520008  RH  073%=      5-min Rain = 0
KLE1 191424Z 29006KT 05/01 A2995 RMK A01 T00520009  RH  073%=      5-min Rain = 0
KLE1 191425Z 29005KT 05/01 A2995 RMK A01 T00540009  RH  073%=      5-min Rain = 0
KLE1 191426Z 29005KT 06/01 A2995 RMK A01 T00550009  RH  072%=      5-min Rain = 0
KLE1 191427Z 29005KT 06/01 A2995 RMK A01 T00560010  RH  072%=      5-min Rain = 0
KLE1 191428Z 30005KT 06/01 A2995 RMK A01 T00570010  RH  072%=      5-min Rain = 0
KLE1 191429Z 29005KT 06/01 A2995 RMK A01 T00580010  RH  071%=      5-min Rain = 0
KLE1 191430Z 29005KT 06/01 A2995 RMK A01 T00580010  RH  071%=      5-min Rain = 0
KLE1 191431Z 30004KT 06/01 A2995 RMK A01 T00590010  RH  071%=      5-min Rain = 0
KLE1 191432Z 29004KT 06/01 A2995 RMK A01 T00600011  RH  071%=      5-min Rain = 0
KLE1 191433Z 29005KT 06/01 A2995 RMK A01 T00610012  RH  071%=      5-min Rain = 0
KLE1 191434Z 29005KT 06/01 A2995 RMK A01 T00620012  RH  070%=      5-min Rain = 0
KLE1 191435Z 30005KT 06/01 A2995 RMK A01 T00630011  RH  069%=      5-min Rain = 0
KLE1 191436Z 30004KT 06/01 A2995 RMK A01 T00630011  RH  069%=      5-min Rain = 0
KLE1 191437Z 30004KT 06/01 A2995 RMK A01 T00640012  RH  069%=      5-min Rain = 0
KLE1 191438Z 31004KT 06/01 A2995 RMK A01 T00640012  RH  069%=      5-min Rain = 0
KLE1 191439Z 31004KT 06/01 A2995 RMK A01 T00640011  RH  069%=      5-min Rain = 0
KLE1 191440Z 31004KT 07/01 A2995 RMK A01 T00650013  RH  069%=      5-min Rain = 0
KLE1 191441Z 32004KT 07/01 A2995 RMK A01 T00670014  RH  069%=      5-min Rain = 0
KLE1 191442Z 32004KT 07/01 A2995 RMK A01 T00680014  RH  068%=      5-min Rain = 0
KLE1 191443Z 32004KT 07/01 A2995 RMK A01 T00690014  RH  068%=      5-min Rain = 0
KLE1 191444Z 31004KT 07/02 A2995 RMK A01 T00710016  RH  068%=      5-min Rain = 0
KLE1 191445Z 31004KT 07/02 A2995 RMK A01 T00730017  RH  068%=      5-min Rain = 0
KLE1 191446Z 31004KT 07/02 A2995 RMK A01 T00730015  RH  067%=      5-min Rain = 0
KLE1 191447Z 30004KT 07/02 A2995 RMK A01 T00740015  RH  066%=      5-min Rain = 0
KLE1 191448Z 31003KT 07/02 A2995 RMK A01 T00740016  RH  066%=      5-min Rain = 0
KLE1 191449Z 32004KT 08/02 A2995 RMK A01 T00750016  RH  066%=      5-min Rain = 0
KLE1 191450Z 31004KT 08/02 A2995 RMK A01 T00760017  RH  066%=      5-min Rain = 0
KLE1 191451Z 31004KT 08/02 A2995 RMK A01 T00780017  RH  065%=      5-min Rain = 0
KLE1 191452Z 31004KT 08/02 A2995 RMK A01 T00790017  RH  065%=      5-min Rain = 0
KLE1 191453Z 31004KT 08/02 A2995 RMK A01 T00800018  RH  065%=      5-min Rain = 0
KLE1 191454Z 31004KT 08/02 A2996 RMK A01 T00810018  RH  065%=      5-min Rain = 0
KLE1 191455Z 31004KT 08/02 A2996 RMK A01 T00820019  RH  064%=      5-min Rain = 0
KLE1 191456Z 30004KT 08/02 A2996 RMK A01 T00830018  RH  064%=      5-min Rain = 0
KLE1 191457Z 30004KT 08/02 A2996 RMK A01 T00830018  RH  064%=      5-min Rain = 0
KLE1 191458Z 30004KT 08/02 A2996 RMK A01 T00830019  RH  064%=      5-min Rain = 0
KLE1 191459Z 30004KT 08/02 A2996 RMK A01 T00840019  RH  063%=      5-min Rain = 0
KLE1 191500Z 30004KT 09/02 A2996 RMK A01 T00850019  RH  063%=      5-min Rain = 0
KLE1 191501Z 30004KT 09/02 A2996 RMK A01 T00870020  RH  063%=      5-min Rain = 0
KLE1 191502Z 29004KT 09/02 A2996 RMK A01 T00870019  RH  062%=      5-min Rain = 0
KLE1 191503Z 30004KT 09/02 A2996 RMK A01 T00880020  RH  062%=      5-min Rain = 0
KLE1 191504Z 30004KT 09/02 A2996 RMK A01 T00890021  RH  062%=      5-min Rain = 0
KLE1 191505Z 30004KT 09/02 A2996 RMK A01 T00910020  RH  061%=      5-min Rain = 0
KLE1 191506Z 30004KT 09/02 A2996 RMK A01 T00910019  RH  061%=      5-min Rain = 0
KLE1 191507Z 30004KT 09/02 A2996 RMK A01 T00910020  RH  061%=      5-min Rain = 0
KLE1 191508Z 30004KT 09/02 A2996 RMK A01 T00920020  RH  061%=      5-min Rain = 0
KLE1 191509Z 30004KT 09/02 A2996 RMK A01 T00930021  RH  061%=      5-min Rain = 0
KLE1 191510Z 30004KT 10/02 A2996 RMK A01 T00950022  RH  060%=      5-min Rain = 0
KLE1 191511Z 31004KT 10/02 A2996 RMK A01 T00970022  RH  060%=      5-min Rain = 0
KLE1 191512Z 30003KT 10/02 A2996 RMK A01 T00980023  RH  059%=      5-min Rain = 0
KLE1 191513Z 30003KT 10/02 A2996 RMK A01 T01000023  RH  059%=      5-min Rain = 0
KLE1 191514Z 30004KT 10/02 A2996 RMK A01 T01010023  RH  058%=      5-min Rain = 0
KLE1 191515Z 30003KT 10/02 A2996 RMK A01 T01030023  RH  058%=      5-min Rain = 0
KLE1 191516Z 30003KT 10/02 A2996 RMK A01 T01040023  RH  057%=      5-min Rain = 0
KLE1 191517Z 30003KT 11/02 A2996 RMK A01 T01060024  RH  057%=      5-min Rain = 0
KLE1 191518Z 29003KT 11/02 A2996 RMK A01 T01070024  RH  056%=      5-min Rain = 0
KLE1 191519Z 30003KT 11/02 A2996 RMK A01 T01090024  RH  056%=      5-min Rain = 0
KLE1 191520Z 30003KT 11/02 A2996 RMK A01 T01100024  RH  055%=      5-min Rain = 0
KLE1 191521Z 29003KT 11/03 A2996 RMK A01 T01110025  RH  055%=      5-min Rain = 0
KLE1 191522Z 30003KT 11/03 A2996 RMK A01 T01130025  RH  055%=      5-min Rain = 0
KLE1 191523Z 31002KT 11/02 A2996 RMK A01 T01140024  RH  054%=      5-min Rain = 0
KLE1 191524Z 30002KT 11/03 A2996 RMK A01 T01140025  RH  054%=      5-min Rain = 0
KLE1 191525Z 30002KT 12/03 A2996 RMK A01 T01160027  RH  054%=      5-min Rain = 0
KLE1 191526Z 31003KT 12/03 A2996 RMK A01 T01180026  RH  053%=      5-min Rain = 0
KLE1 191527Z 30002KT 12/03 A2996 RMK A01 T01190026  RH  053%=      5-min Rain = 0
KLE1 191528Z 30002KT 12/03 A2996 RMK A01 T01200025  RH  052%=      5-min Rain = 0
KLE1 191529Z 30002KT 12/03 A2996 RMK A01 T01210027  RH  053%=      5-min Rain = 0
KLE1 191530Z 30003KT 12/03 A2996 RMK A01 T01220027  RH  052%=      5-min Rain = 0
KLE1 191531Z 31003KT 12/03 A2996 RMK A01 T01230027  RH  052%=      5-min Rain = 0
KLE1 191532Z 31002KT 12/03 A2996 RMK A01 T01240026  RH  051%=      5-min Rain = 0
KLE1 191533Z 31002KT 12/03 A2996 RMK A01 T01240027  RH  052%=      5-min Rain = 0
KLE1 191534Z 32002KT 13/03 A2996 RMK A01 T01260029  RH  051%=      5-min Rain = 0
KLE1 191535Z 31002KT 13/03 A2996 RMK A01 T01280029  RH  051%=      5-min Rain = 0
KLE1 191536Z 31002KT 13/03 A2996 RMK A01 T01300029  RH  050%=      5-min Rain = 0
KLE1 191537Z 31003KT 13/03 A2996 RMK A01 T01300029  RH  050%=      5-min Rain = 0
KLE1 191538Z 31002KT 13/03 A2996 RMK A01 T01310029  RH  050%=      5-min Rain = 0
KLE1 191539Z 30002KT 13/03 A2996 RMK A01 T01320029  RH  050%=      5-min Rain = 0
KLE1 191540Z 30002KT 13/03 A2996 RMK A01 T01330030  RH  050%=      5-min Rain = 0
KLE1 191541Z 31002KT 14/03 A2996 RMK A01 T01350031  RH  049%=      5-min Rain = 0
KLE1 191542Z 29002KT 14/03 A2996 RMK A01 T01360031  RH  049%=      5-min Rain = 0
KLE1 191543Z 33002KT 14/03 A2996 RMK A01 T01370031  RH  049%=      5-min Rain = 0
KLE1 191544Z 31001KT 14/03 A2996 RMK A01 T01390030  RH  048%=      5-min Rain = 0
KLE1 191545Z 33001KT 14/03 A2996 RMK A01 T01400030  RH  047%=      5-min Rain = 0
KLE1 191546Z 03001KT 14/03 A2996 RMK A01 T01400030  RH  047%=      5-min Rain = 0
KLE1 191547Z 02001KT 14/03 A2996 RMK A01 T01410031  RH  047%=      5-min Rain = 0
KLE1 191548Z 02001KT 14/03 A2995 RMK A01 T01440033  RH  047%=      5-min Rain = 0
KLE1 191549Z 02001KT 15/03 A2995 RMK A01 T01470033  RH  046%=      5-min Rain = 0
KLE1 191550Z 03001KT 15/03 A2995 RMK A01 T01490033  RH  046%=      5-min Rain = 0
KLE1 191551Z 03001KT 15/03 A2995 RMK A01 T01510033  RH  045%=      5-min Rain = 0
KLE1 191552Z 06002KT 15/03 A2995 RMK A01 T01530033  RH  045%=      5-min Rain = 0
KLE1 191553Z 07002KT 15/03 A2995 RMK A01 T01540031  RH  044%=      5-min Rain = 0
KLE1 191554Z 06002KT 16/03 A2995 RMK A01 T01550031  RH  043%=      5-min Rain = 0
KLE1 191555Z 08001KT 16/03 A2995 RMK A01 T01550031  RH  043%=      5-min Rain = 0
KLE1 191556Z 09002KT 16/03 A2995 RMK A01 T01560031  RH  043%=      5-min Rain = 0
KLE1 191557Z 09002KT 16/03 A2995 RMK A01 T01560026  RH  041%=      5-min Rain = 0
KLE1 191558Z 09001KT 16/02 A2995 RMK A01 T01560024  RH  041%=      5-min Rain = 0
KLE1 191559Z 09002KT 16/03 A2995 RMK A01 T01570030  RH  042%=      5-min Rain = 0
KLE1 191600Z 11002KT 16/03 A2995 RMK A01 T01590029  RH  042%=      5-min Rain = 0
KLE1 191601Z 13002KT 16/03 A2995 RMK A01 T01590026  RH  041%=      5-min Rain = 0
KLE1 191602Z 13002KT 16/03 A2995 RMK A01 T01580026  RH  041%=      5-min Rain = 0
KLE1 191603Z 11003KT 16/03 A2995 RMK A01 T01590030  RH  042%=      5-min Rain = 0
KLE1 191604Z 12003KT 16/03 A2995 RMK A01 T01600032  RH  042%=      5-min Rain = 0
KLE1 191605Z 13003KT 16/03 A2995 RMK A01 T01610030  RH  041%=      5-min Rain = 0
KLE1 191606Z 13004KT 16/03 A2995 RMK A01 T01620028  RH  041%=      5-min Rain = 0
KLE1 191607Z 13004KT 16/03 A2995 RMK A01 T01620030  RH  041%=      5-min Rain = 0
KLE1 191608Z 14004KT 16/03 A2995 RMK A01 T01630031  RH  041%=      5-min Rain = 0
KLE1 191609Z 13004KT 16/03 A2995 RMK A01 T01630030  RH  041%=      5-min Rain = 0
KLE1 191610Z 14004KT 16/03 A2995 RMK A01 T01630030  RH  041%=      5-min Rain = 0
KLE1 191611Z 13004KT 16/03 A2995 RMK A01 T01640031  RH  041%=      5-min Rain = 0
KLE1 191612Z 13004KT 17/03 A2995 RMK A01 T01650031  RH  041%=      5-min Rain = 0
KLE1 191613Z 13004KT 17/03 A2994 RMK A01 T01650029  RH  040%=      5-min Rain = 0
KLE1 191614Z 13004KT 17/03 A2994 RMK A01 T01650030  RH  041%=      5-min Rain = 0
KLE1 191615Z 14005KT 16/03 A2994 RMK A01 T01640031  RH  041%=      5-min Rain = 0
KLE1 191616Z 12005KT 16/03 A2994 RMK A01 T01630031  RH  041%=      5-min Rain = 0
KLE1 191617Z 12005KT 17/03 A2994 RMK A01 T01650033  RH  041%=      5-min Rain = 0
KLE1 191618Z 12004KT 17/03 A2994 RMK A01 T01660032  RH  041%=      5-min Rain = 0
KLE1 191619Z 11005KT 17/03 A2994 RMK A01 T01670032  RH  041%=      5-min Rain = 0
KLE1 191620Z 14005KT 17/03 A2994 RMK A01 T01680034  RH  041%=      5-min Rain = 0
KLE1 191621Z 12005KT 17/03 A2994 RMK A01 T01680032  RH  040%=      5-min Rain = 0
KLE1 191622Z 12005KT 17/03 A2994 RMK A01 T01670031  RH  040%=      5-min Rain = 0
KLE1 191623Z 12005KT 17/03 A2994 RMK A01 T01660030  RH  040%=      5-min Rain = 0
KLE1 191624Z 14004KT 17/03 A2994 RMK A01 T01650031  RH  041%=      5-min Rain = 0
KLE1 191625Z 13004KT 17/03 A2994 RMK A01 T01660032  RH  041%=      5-min Rain = 0
KLE1 191626Z 15005KT 17/03 A2994 RMK A01 T01650032  RH  041%=      5-min Rain = 0
KLE1 191627Z 13004KT 17/03 A2994 RMK A01 T01660034  RH  041%=      5-min Rain = 0
KLE1 191628Z 14004KT 17/03 A2994 RMK A01 T01660033  RH  041%=      5-min Rain = 0
KLE1 191629Z 14004KT 17/03 A2994 RMK A01 T01660031  RH  040%=      5-min Rain = 0
KLE1 191630Z 12005KT 16/03 A2994 RMK A01 T01640030  RH  041%=      5-min Rain = 0
KLE1 191631Z 12004KT 16/03 A2994 RMK A01 T01620029  RH  041%=      5-min Rain = 0
KLE1 191632Z 11006KT 16/03 A2994 RMK A01 T01620032  RH  042%=      5-min Rain = 0
KLE1 191633Z 12005KT 16/03 A2994 RMK A01 T01630031  RH  041%=      5-min Rain = 0
KLE1 191634Z 12005KT 16/03 A2994 RMK A01 T01630031  RH  041%=      5-min Rain = 0
KLE1 191635Z 12006KT 16/03 A2994 RMK A01 T01630031  RH  041%=      5-min Rain = 0
KLE1 191636Z 12005KT 16/03 A2993 RMK A01 T01620030  RH  041%=      5-min Rain = 0
KLE1 191637Z 12005KT 16/03 A2993 RMK A01 T01620031  RH  041%=      5-min Rain = 0
KLE1 191638Z 11006KT 16/03 A2993 RMK A01 T01640033  RH  041%=      5-min Rain = 0
KLE1 191639Z 12005KT 16/03 A2993 RMK A01 T01640033  RH  041%=      5-min Rain = 0
KLE1 191640Z 12006KT 17/03 A2993 RMK A01 T01660033  RH  041%=      5-min Rain = 0
KLE1 191641Z 12006KT 17/03 A2993 RMK A01 T01690028  RH  039%=      5-min Rain = 0
KLE1 191642Z 12006KT 17/03 A2993 RMK A01 T01690027  RH  038%=      5-min Rain = 0
KLE1 191643Z 11006KT 17/03 A2993 RMK A01 T01700031  RH  039%=      5-min Rain = 0
KLE1 191644Z 11006KT 17/03 A2993 RMK A01 T01700026  RH  038%=      5-min Rain = 0
KLE1 191645Z 11005KT 17/03 A2993 RMK A01 T01710025  RH  038%=      5-min Rain = 0
KLE1 191646Z 11005KT 17/03 A2993 RMK A01 T01710026  RH  038%=      5-min Rain = 0
KLE1 191647Z 12005KT 17/03 A2993 RMK A01 T01700027  RH  038%=      5-min Rain = 0
KLE1 191648Z 11005KT 17/03 A2993 RMK A01 T01700027  RH  038%=      5-min Rain = 0
KLE1 191649Z 10006KT 17/03 A2993 RMK A01 T01700028  RH  039%=      5-min Rain = 0
KLE1 191650Z 10006KT 17/03 A2993 RMK A01 T01710028  RH  038%=      5-min Rain = 0
KLE1 191651Z 10006KT 17/03 A2993 RMK A01 T01730028  RH  038%=      5-min Rain = 0
KLE1 191652Z 11004KT 17/03 A2993 RMK A01 T01740028  RH  038%=      5-min Rain = 0
KLE1 191653Z 12006KT 18/03 A2993 RMK A01 T01770029  RH  037%=      5-min Rain = 0
KLE1 191654Z 11005KT 18/03 A2993 RMK A01 T01780027  RH  036%=      5-min Rain = 0
KLE1 191655Z 11006KT 18/03 A2993 RMK A01 T01770028  RH  037%=      5-min Rain = 0
KLE1 191656Z 12006KT 18/03 A2993 RMK A01 T01780028  RH  037%=      5-min Rain = 0
KLE1 191657Z 12005KT 18/03 A2993 RMK A01 T01810027  RH  036%=      5-min Rain = 0
KLE1 191658Z 12005KT 18/03 A2993 RMK A01 T01820026  RH  035%=      5-min Rain = 0
KLE1 191659Z 13005KT 18/03 A2992 RMK A01 T01830027  RH  035%=      5-min Rain = 0
KLE1 191700Z 12006KT 18/03 A2992 RMK A01 T01830026  RH  035%=      5-min Rain = 0
KLE1 191701Z 13006KT 18/03 A2992 RMK A01 T01830026  RH  035%=      5-min Rain = 0
KLE1 191702Z 13005KT 18/03 A2992 RMK A01 T01830027  RH  035%=      5-min Rain = 0
KLE1 191703Z 12005KT 18/03 A2992 RMK A01 T01820026  RH  035%=      5-min Rain = 0
KLE1 191704Z 11004KT 18/03 A2992 RMK A01 T01810027  RH  036%=      5-min Rain = 0
KLE1 191705Z 12005KT 18/03 A2992 RMK A01 T01830029  RH  036%=      5-min Rain = 0
KLE1 191706Z 13006KT 19/03 A2992 RMK A01 T01870032  RH  036%=      5-min Rain = 0
KLE1 191707Z 12006KT 19/03 A2992 RMK A01 T01890029  RH  034%=      5-min Rain = 0
KLE1 191708Z 11006KT 19/03 A2992 RMK A01 T01880028  RH  034%=      5-min Rain = 0
KLE1 191709Z 11007KT 19/03 A2992 RMK A01 T01870028  RH  035%=      5-min Rain = 0
KLE1 191710Z 12007KT 19/03 A2992 RMK A01 T01870028  RH  035%=      5-min Rain = 0
KLE1 191711Z 13006KT 19/03 A2992 RMK A01 T01880028  RH  034%=      5-min Rain = 0
KLE1 191712Z 12006KT 19/03 A2992 RMK A01 T01890030  RH  035%=      5-min Rain = 0
KLE1 191713Z 12007KT 19/03 A2992 RMK A01 T01910030  RH  034%=      5-min Rain = 0
KLE1 191714Z 12008KT 19/03 A2992 RMK A01 T01920028  RH  034%=      5-min Rain = 0
KLE1 191715Z 12008KT 19/03 A2992 RMK A01 T01920025  RH  033%=      5-min Rain = 0
KLE1 191716Z 12006KT 19/03 A2992 RMK A01 T01910026  RH  033%=      5-min Rain = 0
KLE1 191717Z 12007KT 19/03 A2992 RMK A01 T01920027  RH  033%=      5-min Rain = 0
KLE1 191718Z 13007KT 19/03 A2991 RMK A01 T01920026  RH  033%=      5-min Rain = 0
KLE1 191719Z 12007KT 19/03 A2991 RMK A01 T01930027  RH  033%=      5-min Rain = 0
KLE1 191720Z 13008KT 20/03 A2991 RMK A01 T01960028  RH  033%=      5-min Rain = 0
KLE1 191721Z 13008KT 20/03 A2991 RMK A01 T01970025  RH  032%=      5-min Rain = 0
KLE1 191722Z 13008KT 20/03 A2991 RMK A01 T01960025  RH  032%=      5-min Rain = 0
KLE1 191723Z 13007KT 20/03 A2991 RMK A01 T01950026  RH  032%=      5-min Rain = 0
KLE1 191724Z 12009KT 20/03 A2991 RMK A01 T01970026  RH  032%=      5-min Rain = 0
KLE1 191725Z 12009KT 20/02 A2991 RMK A01 T01960024  RH  032%=      5-min Rain = 0
KLE1 191726Z 12009KT 20/03 A2991 RMK A01 T01960025  RH  032%=      5-min Rain = 0
KLE1 191727Z 13009KT 20/02 A2991 RMK A01 T01960024  RH  032%=      5-min Rain = 0
KLE1 191728Z 13009KT 20/03 A299 RMK A01 T01970025  RH  032%=      5-min Rain = 0
KLE1 191729Z 13011KT 20/03 A299 RMK A01 T01990025  RH  031%=      5-min Rain = 0
KLE1 191730Z 12010KT 20/02 A299 RMK A01 T01990024  RH  031%=      5-min Rain = 0
KLE1 191731Z 12011KT 20/03 A299 RMK A01 T02010026  RH  031%=      5-min Rain = 0
KLE1 191732Z 13011KT 20/03 A299 RMK A01 T02020026  RH  031%=      5-min Rain = 0
KLE1 191733Z 13012KT 20/03 A299 RMK A01 T02040025  RH  031%=      5-min Rain = 0
KLE1 191734Z 13011KT 21/03 A299 RMK A01 T02050025  RH  030%=      5-min Rain = 0
KLE1 191735Z 13012KT 21/02 A299 RMK A01 T02050024  RH  030%=      5-min Rain = 0
KLE1 191736Z 13013KT 21/03 A299 RMK A01 T02050025  RH  030%=      5-min Rain = 0
KLE1 191737Z 13012KT 21/03 A299 RMK A01 T02060025  RH  030%=      5-min Rain = 0
KLE1 191738Z 12015KT 21/03 A2989 RMK A01 T02060025  RH  030%=      5-min Rain = 0
KLE1 191739Z 13015KT 21/03 A2989 RMK A01 T02070026  RH  030%=      5-min Rain = 0
KLE1 191740Z 13014KT 21/03 A2989 RMK A01 T02080025  RH  030%=      5-min Rain = 0
KLE1 191741Z 12012KT 21/03 A2989 RMK A01 T02080027  RH  030%=      5-min Rain = 0
KLE1 191742Z 12012KT 21/03 A2989 RMK A01 T02100027  RH  030%=      5-min Rain = 0
KLE1 191743Z 12012KT 21/03 A2989 RMK A01 T02100026  RH  030%=      5-min Rain = 0
KLE1 191744Z 12012KT 21/03 A2989 RMK A01 T02110025  RH  029%=      5-min Rain = 0
KLE1 191745Z 12010KT 21/03 A2989 RMK A01 T02100026  RH  030%=      5-min Rain = 0
KLE1 191746Z 12012KT 21/03 A2989 RMK A01 T02110027  RH  030%=      5-min Rain = 0
KLE1 191747Z 11011KT 21/03 A299 RMK A01 T02120026  RH  029%=      5-min Rain = 0
KLE1 191748Z 13011KT 21/03 A299 RMK A01 T02110026  RH  030%=      5-min Rain = 0
KLE1 191749Z 13012KT 21/03 A2989 RMK A01 T02110027  RH  030%=      5-min Rain = 0
KLE1 191750Z 13011KT 21/03 A2989 RMK A01 T02120026  RH  029%=      5-min Rain = 0
KLE1 191751Z 13009KT 21/03 A2989 RMK A01 T02130027  RH  029%=      5-min Rain = 0
KLE1 191752Z 13013KT 22/03 A2989 RMK A01 T02160028  RH  029%=      5-min Rain = 0
KLE1 191753Z 13011KT 22/03 A2989 RMK A01 T02180027  RH  028%=      5-min Rain = 0
KLE1 191754Z 13010KT 22/03 A2989 RMK A01 T02190026  RH  028%=      5-min Rain = 0
KLE1 191755Z 12010KT 22/03 A2989 RMK A01 T02210029  RH  028%=      5-min Rain = 0
KLE1 191756Z 12010KT 22/03 A2989 RMK A01 T02230027  RH  028%=      5-min Rain = 0
KLE1 191757Z 13010KT 22/03 A2989 RMK A01 T02230028  RH  028%=      5-min Rain = 0
KLE1 191758Z 13010KT 22/03 A2989 RMK A01 T02230027  RH  028%=      5-min Rain = 0
KLE1 191759Z 12011KT 22/03 A2989 RMK A01 T02220026  RH  027%=      5-min Rain = 0
KLE1 191800Z 12011KT 22/03 A2989 RMK A01 T02210027  RH  028%=      5-min Rain = 0
KLE1 191801Z 12010KT 22/03 A2989 RMK A01 T02210027  RH  028%=      5-min Rain = 0
KLE1 191802Z 11013KT 22/03 A2989 RMK A01 T02220027  RH  028%=      5-min Rain = 0
KLE1 191803Z 12012KT 22/03 A2989 RMK A01 T02190025  RH  028%=      5-min Rain = 0
KLE1 191804Z 12011KT 22/03 A2989 RMK A01 T02170026  RH  029%=      5-min Rain = 0
KLE1 191805Z 14009KT 22/03 A2989 RMK A01 T02160026  RH  029%=      5-min Rain = 0
KLE1 191806Z 13008KT 22/03 A2989 RMK A01 T02160027  RH  029%=      5-min Rain = 0
KLE1 191807Z 15007KT 22/03 A2989 RMK A01 T02180028  RH  029%=      5-min Rain = 0
KLE1 191808Z 14008KT 22/03 A2989 RMK A01 T02200029  RH  028%=      5-min Rain = 0
KLE1 191809Z 14007KT 22/03 A2989 RMK A01 T02230030  RH  028%=      5-min Rain = 0
KLE1 191810Z 14007KT 23/03 A2989 RMK A01 T02270030  RH  027%=      5-min Rain = 0
KLE1 191811Z 14006KT 23/03 A2989 RMK A01 T02270029  RH  027%=      5-min Rain = 0
KLE1 191812Z 14007KT 23/03 A2988 RMK A01 T02280031  RH  027%=      5-min Rain = 0
KLE1 191813Z 15007KT 23/03 A2988 RMK A01 T02300029  RH  027%=      5-min Rain = 0
KLE1 191814Z 14009KT 23/03 A2988 RMK A01 T02310030  RH  027%=      5-min Rain = 0
KLE1 191815Z 15011G16KT 23/03 A2988 RMK A01 T02330026  RH  026%=      5-min Rain = 0
KLE1 191816Z 13012KT 23/03 A2988 RMK A01 T02340030  RH  026%=      5-min Rain = 0
KLE1 191817Z 14016KT 24/03 A2988 RMK A01 T02350025  RH  025%=      5-min Rain = 0
KLE1 191818Z 15014KT 24/02 A2988 RMK A01 T02360019  RH  024%=      5-min Rain = 0
KLE1 191819Z 15016KT 24/02 A2988 RMK A01 T02350019  RH  024%=      5-min Rain = 0
KLE1 191820Z 15016KT 24/02 A2988 RMK A01 T02360019  RH  024%=      5-min Rain = 0
KLE1 191821Z 15012KT 24/02 A2988 RMK A01 T02360019  RH  024%=      5-min Rain = 0
KLE1 191822Z 15012KT 24/02 A2988 RMK A01 T02350019  RH  024%=      5-min Rain = 0
KLE1 191823Z 16012KT 24/02 A2988 RMK A01 T02350019  RH  024%=      5-min Rain = 0
KLE1 191824Z 16014KT 24/02 A2988 RMK A01 T02360020  RH  024%=      5-min Rain = 0
KLE1 191825Z 17014KT 24/02 A2988 RMK A01 T02370020  RH  024%=      5-min Rain = 0
KLE1 191826Z 17013KT 24/02 A2987 RMK A01 T02380019  RH  024%=      5-min Rain = 0
KLE1 191827Z 17012KT 24/02 A2987 RMK A01 T02380021  RH  024%=      5-min Rain = 0
KLE1 191828Z 16012KT 24/02 A2987 RMK A01 T02400022  RH  024%=      5-min Rain = 0
KLE1 191829Z 16012KT 24/02 A2987 RMK A01 T02430024  RH  024%=      5-min Rain = 0
KLE1 191830Z 17012KT 24/02 A2987 RMK A01 T02420021  RH  024%=      5-min Rain = 0
KLE1 191831Z 17012KT 24/02 A2987 RMK A01 T02400021  RH  024%=      5-min Rain = 0
KLE1 191832Z 16012KT 24/02 A2987 RMK A01 T02380021  RH  024%=      5-min Rain = 0
KLE1 191833Z 16011KT 24/02 A2987 RMK A01 T02370022  RH  024%=      5-min Rain = 0
KLE1 191834Z 15012KT 24/02 A2987 RMK A01 T02370023  RH  025%=      5-min Rain = 0
KLE1 191835Z 14011KT 24/02 A2987 RMK A01 T02380021  RH  024%=      5-min Rain = 0
KLE1 191836Z 15013KT 24/02 A2987 RMK A01 T02370021  RH  024%=      5-min Rain = 0
KLE1 191837Z 15012KT 24/02 A2987 RMK A01 T02370021  RH  024%=      5-min Rain = 0
KLE1 191838Z 14010KT 24/02 A2987 RMK A01 T02380023  RH  025%=      5-min Rain = 0
KLE1 191839Z 16012KT 24/02 A2987 RMK A01 T02400024  RH  024%=      5-min Rain = 0
KLE1 191840Z 15013KT 24/02 A2987 RMK A01 T02410024  RH  024%=      5-min Rain = 0
KLE1 191841Z 15012KT 24/02 A2986 RMK A01 T02410024  RH  024%=      5-min Rain = 0
KLE1 191842Z 16013KT 24/03 A2986 RMK A01 T02420025  RH  024%=      5-min Rain = 0
KLE1 191843Z 17014KT 24/02 A2986 RMK A01 T02430024  RH  024%=      5-min Rain = 0
KLE1 191844Z 16014KT 24/02 A2986 RMK A01 T02410023  RH  024%=      5-min Rain = 0
KLE1 191845Z 16012KT 24/02 A2986 RMK A01 T02400023  RH  024%=      5-min Rain = 0
KLE1 191846Z 17012KT 24/02 A2986 RMK A01 T02390023  RH  024%=      5-min Rain = 0
KLE1 191847Z 16011KT 24/03 A2986 RMK A01 T02410025  RH  024%=      5-min Rain = 0
KLE1 191848Z 14015KT 24/03 A2986 RMK A01 T02440026  RH  024%=      5-min Rain = 0
KLE1 191849Z 13013KT 24/02 A2986 RMK A01 T02410024  RH  024%=      5-min Rain = 0
KLE1 191850Z 15012KT 24/02 A2986 RMK A01 T02390023  RH  024%=      5-min Rain = 0
KLE1 191851Z 15011KT 24/02 A2986 RMK A01 T02380024  RH  025%=      5-min Rain = 0
KLE1 191852Z 14011KT 24/03 A2986 RMK A01 T02390025  RH  025%=      5-min Rain = 0
KLE1 191853Z 15011KT 24/03 A2986 RMK A01 T02410027  RH  025%=      5-min Rain = 0
KLE1 191854Z 15009KT 24/03 A2985 RMK A01 T02430025  RH  024%=      5-min Rain = 0
KLE1 191855Z 15010KT 24/03 A2985 RMK A01 T02420025  RH  024%=      5-min Rain = 0
KLE1 191856Z 15013KT 24/03 A2985 RMK A01 T02430027  RH  024%=      5-min Rain = 0
KLE1 191857Z 15010KT 25/03 A2985 RMK A01 T02460026  RH  024%=      5-min Rain = 0
KLE1 191858Z 15015KT 25/03 A2985 RMK A01 T02460027  RH  024%=      5-min Rain = 0
KLE1 191859Z 15014KT 24/03 A2985 RMK A01 T02440025  RH  024%=      5-min Rain = 0
KLE1 191900Z 15014KT 24/03 A2985 RMK A01 T02420025  RH  024%=      5-min Rain = 0
KLE1 191901Z 16012KT 24/03 A2985 RMK A01 T02410025  RH  024%=      5-min Rain = 0
KLE1 191902Z 17011KT 24/03 A2985 RMK A01 T02390025  RH  025%=      5-min Rain = 0
KLE1 191903Z 16010KT 24/02 A2985 RMK A01 T02380024  RH  025%=      5-min Rain = 0
KLE1 191904Z 16012KT 24/03 A2985 RMK A01 T02370026  RH  025%=      5-min Rain = 0
KLE1 191905Z 16010KT 24/03 A2985 RMK A01 T02360025  RH  025%=      5-min Rain = 0
KLE1 191906Z 15011KT 24/03 A2984 RMK A01 T02350026  RH  025%=      5-min Rain = 0
KLE1 191907Z 15012KT 23/03 A2984 RMK A01 T02340026  RH  025%=      5-min Rain = 0
KLE1 191908Z 15012KT 23/03 A2984 RMK A01 T02330025  RH  026%=      5-min Rain = 0
KLE1 191909Z 14012KT 23/03 A2984 RMK A01 T02330026  RH  026%=      5-min Rain = 0
KLE1 191910Z 14011KT 23/03 A2984 RMK A01 T02330028  RH  026%=      5-min Rain = 0
KLE1 191911Z 15012KT 23/03 A2984 RMK A01 T02340029  RH  026%=      5-min Rain = 0
KLE1 191912Z 15012KT 24/03 A2984 RMK A01 T02370028  RH  026%=      5-min Rain = 0
KLE1 191913Z 15011KT 24/03 A2984 RMK A01 T02390028  RH  025%=      5-min Rain = 0
KLE1 191914Z 15009KT 24/03 A2984 RMK A01 T02410029  RH  025%=      5-min Rain = 0
KLE1 191915Z 15011KT 24/03 A2984 RMK A01 T02440030  RH  025%=      5-min Rain = 0
KLE1 191916Z 14011KT 25/03 A2984 RMK A01 T02460030  RH  025%=      5-min Rain = 0
KLE1 191917Z 14011KT 25/03 A2983 RMK A01 T02470030  RH  024%=      5-min Rain = 0
KLE1 191918Z 16010KT 25/03 A2983 RMK A01 T02480032  RH  024%=      5-min Rain = 0
KLE1 191919Z 18012KT 25/03 A2983 RMK A01 T02520029  RH  023%=      5-min Rain = 0
KLE1 191920Z 19013KT 25/03 A2983 RMK A01 T02530027  RH  023%=      5-min Rain = 0
KLE1 191921Z 16010KT 26/03 A2983 RMK A01 T02560029  RH  023%=      5-min Rain = 0
KLE1 191922Z 16010KT 26/03 A2983 RMK A01 T02580030  RH  023%=      5-min Rain = 0
KLE1 191923Z 15010KT 26/03 A2983 RMK A01 T02610031  RH  023%=      5-min Rain = 0
KLE1 191924Z 16011G16KT 26/03 A2983 RMK A01 T02610031  RH  022%=      5-min Rain = 0
KLE1 191925Z 16014KT 26/03 A2983 RMK A01 T02610028  RH  022%=      5-min Rain = 0
KLE1 191926Z 16016KT 26/03 A2983 RMK A01 T02600027  RH  022%=      5-min Rain = 0
KLE1 191927Z 17012KT 26/03 A2983 RMK A01 T02580025  RH  022%=      5-min Rain = 0
KLE1 191928Z 15012KT 26/03 A2983 RMK A01 T02560026  RH  022%=      5-min Rain = 0
KLE1 191929Z 16009KT 26/03 A2983 RMK A01 T02560026  RH  022%=      5-min Rain = 0
KLE1 191930Z 16013KT 26/03 A2982 RMK A01 T02570028  RH  023%=      5-min Rain = 0
KLE1 191931Z 15012KT 26/03 A2982 RMK A01 T02580027  RH  022%=      5-min Rain = 0
KLE1 191932Z 14014G19KT 26/03 A2982 RMK A01 T02580028  RH  023%=      5-min Rain = 0
KLE1 191933Z 14016KT 26/03 A2982 RMK A01 T02560026  RH  022%=      5-min Rain = 0
KLE1 191934Z 15015KT 25/03 A2982 RMK A01 T02540027  RH  023%=      5-min Rain = 0
KLE1 191935Z 15012KT 25/03 A2982 RMK A01 T02540027  RH  023%=      5-min Rain = 0
KLE1 191936Z 14015KT 25/03 A2982 RMK A01 T02540029  RH  023%=      5-min Rain = 0
KLE1 191937Z 14012KT 26/03 A2982 RMK A01 T02550030  RH  023%=      5-min Rain = 0
KLE1 191938Z 14013KT 26/03 A2982 RMK A01 T02570031  RH  023%=      5-min Rain = 0
KLE1 191939Z 14015KT 26/03 A2982 RMK A01 T02590030  RH  023%=      5-min Rain = 0
KLE1 191940Z 14013KT 26/03 A2982 RMK A01 T02590029  RH  023%=      5-min Rain = 0
KLE1 191941Z 15011KT 26/03 A2982 RMK A01 T02570030  RH  023%=      5-min Rain = 0
KLE1 191942Z 15012KT 26/03 A2981 RMK A01 T02590031  RH  023%=      5-min Rain = 0
KLE1 191943Z 14012KT 26/03 A2981 RMK A01 T02620031  RH  022%=      5-min Rain = 0
KLE1 191944Z 15011KT 26/03 A2981 RMK A01 T02610029  RH  022%=      5-min Rain = 0
KLE1 191945Z 14013G18KT 26/03 A2981 RMK A01 T02610031  RH  023%=      5-min Rain = 0
KLE1 191946Z 16016KT 26/03 A2981 RMK A01 T02640028  RH  022%=      5-min Rain = 0
KLE1 191947Z 16014KT 27/03 A2981 RMK A01 T02650025  RH  021%=      5-min Rain = 0
KLE1 191948Z 18013KT 27/02 A2981 RMK A01 T02650024  RH  021%=      5-min Rain = 0
KLE1 191949Z 17010KT 26/02 A2981 RMK A01 T02640024  RH  021%=      5-min Rain = 0
KLE1 191950Z 16009KT 27/03 A2981 RMK A01 T02660026  RH  021%=      5-min Rain = 0
KLE1 191951Z 16013KT 27/03 A2981 RMK A01 T02690027  RH  021%=      5-min Rain = 0
KLE1 191952Z 16015KT 27/03 A2981 RMK A01 T02710026  RH  021%=      5-min Rain = 0
KLE1 191953Z 15015KT 27/02 A298 RMK A01 T02710022  RH  020%=      5-min Rain = 0
KLE1 191954Z 17017KT 27/02 A298 RMK A01 T02700019  RH  020%=      5-min Rain = 0
KLE1 191955Z 17018KT 27/01 A298 RMK A01 T02710013  RH  019%=      5-min Rain = 0
KLE1 191956Z 18019KT 27/01 A298 RMK A01 T02700010  RH  018%=      5-min Rain = 0
KLE1 191957Z 18015KT 27/01 A298 RMK A01 T02690009  RH  018%=      5-min Rain = 0
KLE1 191958Z 19014KT 27/01 A298 RMK A01 T02690010  RH  019%=      5-min Rain = 0
KLE1 191959Z 19011KT 27/01 A298 RMK A01 T02700011  RH  019%=      5-min Rain = 0
KLE1 192000Z 17013KT 27/01 A298 RMK A01 T02720011  RH  018%=      5-min Rain = 0
KLE1 192001Z 16014KT 27/01 A298 RMK A01 T02720011  RH  018%=      5-min Rain = 0
KLE1 192002Z 16017KT 27/01 A298 RMK A01 T02720012  RH  019%=      5-min Rain = 0
KLE1 192003Z 16017KT 27/01 A298 RMK A01 T02720012  RH  018%=      5-min Rain = 0
KLE1 192004Z 18017KT 27/01 A298 RMK A01 T02700011  RH  019%=      5-min Rain = 0
KLE1 192005Z 18017KT 27/01 A298 RMK A01 T02710012  RH  019%=      5-min Rain = 0
KLE1 192006Z 19015KT 27/01 A298 RMK A01 T02720011  RH  018%=      5-min Rain = 0
KLE1 192007Z 19015KT 27/01 A298 RMK A01 T02720010  RH  018%=      5-min Rain = 0
KLE1 192008Z 18013KT 27/01 A298 RMK A01 T02720011  RH  018%=      5-min Rain = 0
KLE1 192009Z 17011KT 28/01 A298 RMK A01 T02750014  RH  018%=      5-min Rain = 0
KLE1 192010Z 17012KT 28/01 A298 RMK A01 T02780014  RH  018%=      5-min Rain = 0
KLE1 192011Z 17014KT 28/02 A298 RMK A01 T02790015  RH  018%=      5-min Rain = 0
KLE1 192012Z 18017KT 28/01 A2979 RMK A01 T02790010  RH  018%=      5-min Rain = 0
KLE1 192013Z 19017KT 28/01 A2979 RMK A01 T02770009  RH  018%=      5-min Rain = 0
KLE1 192014Z 19020KT 27/01 A2979 RMK A01 T02740008  RH  018%=      5-min Rain = 0
KLE1 192015Z 18015KT 27/01 A2979 RMK A01 T02710009  RH  018%=      5-min Rain = 0
KLE1 192016Z 17014G19KT 27/01 A2979 RMK A01 T02710009  RH  018%=      5-min Rain = 0
KLE1 192017Z 18018KT 27/01 A2979 RMK A01 T02720010  RH  018%=      5-min Rain = 0
KLE1 192018Z 17015G20KT 27/01 A2979 RMK A01 T02710010  RH  018%=      5-min Rain = 0
KLE1 192019Z 16018KT 27/01 A2979 RMK A01 T02720011  RH  018%=      5-min Rain = 0
KLE1 192020Z 17017KT 27/01 A2979 RMK A01 T02730010  RH  018%=      5-min Rain = 0
KLE1 192021Z 17013KT 27/01 A2979 RMK A01 T02710010  RH  018%=      5-min Rain = 0
KLE1 192022Z 16016G21KT 27/01 A2979 RMK A01 T02720011  RH  018%=      5-min Rain = 0
KLE1 192023Z 17017KT 27/01 A2979 RMK A01 T02730010  RH  018%=      5-min Rain = 0
KLE1 192024Z 17014KT 27/01 A2979 RMK A01 T02720009  RH  018%=      5-min Rain = 0
KLE1 192025Z 16014KT 27/01 A2979 RMK A01 T02710010  RH  018%=      5-min Rain = 0
KLE1 192026Z 17014KT 27/01 A2979 RMK A01 T02730013  RH  018%=      5-min Rain = 0
KLE1 192027Z 18015KT 28/01 A2979 RMK A01 T02760012  RH  018%=      5-min Rain = 0
KLE1 192028Z 17012KT 28/01 A2979 RMK A01 T02750010  RH  018%=      5-min Rain = 0
KLE1 192029Z 18012KT 28/01 A2979 RMK A01 T02760012  RH  018%=      5-min Rain = 0
KLE1 192030Z 17013KT 28/01 A2979 RMK A01 T02780011  RH  018%=      5-min Rain = 0
KLE1 192031Z 18013KT 28/01 A2979 RMK A01 T02780010  RH  018%=      5-min Rain = 0
KLE1 192032Z 17014KT 28/01 A2979 RMK A01 T02760008  RH  017%=      5-min Rain = 0
KLE1 192033Z 18016KT 27/00 A2979 RMK A01 T02730004  RH  017%=      5-min Rain = 0
KLE1 192034Z 18014KT 27/00 A2979 RMK A01 T02710003  RH  017%=      5-min Rain = 0
KLE1 192035Z 17016KT 27/00 A2979 RMK A01 T02700002  RH  017%=      5-min Rain = 0
KLE1 192036Z 17019KT 27/00 A2979 RMK A01 T02690000  RH  017%=      5-min Rain = 0
KLE1 192037Z 17019KT 27/00 A2979 RMK A01 T02680001  RH  017%=      5-min Rain = 0
KLE1 192038Z 18018KT 27/00 A2979 RMK A01 T02670001  RH  018%=      5-min Rain = 0
KLE1 192039Z 18017KT 27/00 A2979 RMK A01 T02670003  RH  018%=      5-min Rain = 0
KLE1 192040Z 19018KT 27/00 A2979 RMK A01 T02690003  RH  018%=      5-min Rain = 0
KLE1 192041Z 18017KT 27/00 A2979 RMK A01 T02700003  RH  017%=      5-min Rain = 0
KLE1 192042Z 18018KT 27/00 A2979 RMK A01 T02710002  RH  017%=      5-min Rain = 0
KLE1 192043Z 18018KT 27/00 A2979 RMK A01 T02710002  RH  017%=      5-min Rain = 0
KLE1 192044Z 18015KT 27/00 A2979 RMK A01 T02710002  RH  017%=      5-min Rain = 0
KLE1 192045Z 18017KT 27/00 A2979 RMK A01 T02700002  RH  017%=      5-min Rain = 0
KLE1 192046Z 18020KT 27/00 A2978 RMK A01 T02690002  RH  018%=      5-min Rain = 0
KLE1 192047Z 18019G24KT 27/00 A2978 RMK A01 T02670002  RH  018%=      5-min Rain = 0
KLE1 192048Z 18017KT 27/00 A2979 RMK A01 T02670003  RH  018%=      5-min Rain = 0
KLE1 192049Z 18018KT 27/00 A2978 RMK A01 T02670003  RH  018%=      5-min Rain = 0
KLE1 192050Z 17014KT 27/01 A2978 RMK A01 T02690005  RH  018%=      5-min Rain = 0
KLE1 192051Z 18015KT 27/01 A2978 RMK A01 T02720006  RH  018%=      5-min Rain = 0
KLE1 192052Z 18016G23KT 28/01 A2978 RMK A01 T02760008  RH  018%=      5-min Rain = 0
KLE1 192053Z 18017KT 28/01 A2978 RMK A01 T02770006  RH  017%=      5-min Rain = 0
KLE1 192054Z 18015KT 28/01 A2978 RMK A01 T02760006  RH  017%=      5-min Rain = 0
KLE1 192055Z 17015KT 28/01 A2978 RMK A01 T02760007  RH  017%=      5-min Rain = 0
KLE1 192056Z 17015KT 28/01 A2978 RMK A01 T02760007  RH  017%=      5-min Rain = 0
KLE1 192057Z 18017KT 28/01 A2978 RMK A01 T02760007  RH  017%=      5-min Rain = 0
KLE1 192058Z 17019KT 28/01 A2978 RMK A01 T02760007  RH  017%=      5-min Rain = 0
KLE1 192059Z 18017KT 27/01 A2978 RMK A01 T02740007  RH  018%=      5-min Rain = 0
KLE1 192100Z 18017KT 27/01 A2978 RMK A01 T02740008  RH  018%=      5-min Rain = 0
KLE1 192101Z 17018KT 27/01 A2978 RMK A01 T02730008  RH  018%=      5-min Rain = 0
KLE1 192102Z 18017G23KT 27/01 A2978 RMK A01 T02740009  RH  018%=      5-min Rain = 0
KLE1 192103Z 18018G23KT 28/01 A2978 RMK A01 T02750009  RH  018%=      5-min Rain = 0
KLE1 192104Z 18014G19KT 28/01 A2978 RMK A01 T02750010  RH  018%=      5-min Rain = 0
KLE1 192105Z 18015KT 28/01 A2978 RMK A01 T02750009  RH  018%=      5-min Rain = 0
KLE1 192106Z 17014KT 28/01 A2978 RMK A01 T02750008  RH  018%=      5-min Rain = 0
KLE1 192107Z 18014KT 28/01 A2978 RMK A01 T02750009  RH  018%=      5-min Rain = 0
KLE1 192108Z 18017KT 28/01 A2978 RMK A01 T02770011  RH  018%=      5-min Rain = 0
KLE1 192109Z 18018KT 28/01 A2978 RMK A01 T02770010  RH  018%=      5-min Rain = 0
KLE1 192110Z 19017KT 28/01 A2978 RMK A01 T02750010  RH  018%=      5-min Rain = 0
KLE1 192111Z 19017KT 27/01 A2978 RMK A01 T02740010  RH  018%=      5-min Rain = 0
KLE1 192112Z 19016KT 27/01 A2978 RMK A01 T02740012  RH  018%=      5-min Rain = 0
KLE1 192113Z 18015KT 27/01 A2978 RMK A01 T02740012  RH  018%=      5-min Rain = 0
KLE1 192114Z 20014G19KT 27/01 A2978 RMK A01 T02740014  RH  018%=      5-min Rain = 0
KLE1 192115Z 21014KT 28/02 A2978 RMK A01 T02770015  RH  018%=      5-min Rain = 0
KLE1 192116Z 20016KT 28/02 A2978 RMK A01 T02770015  RH  018%=      5-min Rain = 0
KLE1 192117Z 20016KT 28/02 A2978 RMK A01 T02760015  RH  018%=      5-min Rain = 0
KLE1 192118Z 19014KT 28/02 A2977 RMK A01 T02750016  RH  019%=      5-min Rain = 0
KLE1 192119Z 18013KT 27/02 A2978 RMK A01 T02740016  RH  019%=      5-min Rain = 0
KLE1 192120Z 17018KT 28/02 A2977 RMK A01 T02750016  RH  019%=      5-min Rain = 0
KLE1 192121Z 18019KT 27/02 A2977 RMK A01 T02730016  RH  019%=      5-min Rain = 0
KLE1 192122Z 18020KT 27/02 A2977 RMK A01 T02710016  RH  019%=      5-min Rain = 0
KLE1 192123Z 19017KT 27/02 A2977 RMK A01 T02690017  RH  020%=      5-min Rain = 0
KLE1 192124Z 18016KT 27/02 A2977 RMK A01 T02690018  RH  020%=      5-min Rain = 0
KLE1 192125Z 18016KT 27/02 A2977 RMK A01 T02690019  RH  020%=      5-min Rain = 0
KLE1 192126Z 19016KT 27/02 A2977 RMK A01 T02690019  RH  020%=      5-min Rain = 0
KLE1 192127Z 19015KT 27/02 A2977 RMK A01 T02690020  RH  020%=      5-min Rain = 0
KLE1 192128Z 19013KT 27/02 A2978 RMK A01 T02690020  RH  020%=      5-min Rain = 0
KLE1 192129Z 19014KT 27/02 A2978 RMK A01 T02700022  RH  020%=      5-min Rain = 0
KLE1 192130Z 19011KT 27/02 A2978 RMK A01 T02710022  RH  020%=      5-min Rain = 0
KLE1 192131Z 19010G16KT 27/02 A2978 RMK A01 T02730024  RH  020%=      5-min Rain = 0
KLE1 192132Z 19012KT 27/02 A2978 RMK A01 T02740023  RH  020%=      5-min Rain = 0
KLE1 192133Z 18017KT 27/02 A2978 RMK A01 T02730022  RH  020%=      5-min Rain = 0
KLE1 192134Z 18018G23KT 27/02 A2978 RMK A01 T02710023  RH  020%=      5-min Rain = 0
KLE1 192135Z 18019KT 27/02 A2977 RMK A01 T02690023  RH  020%=      5-min Rain = 0
KLE1 192136Z 18020KT 27/02 A2977 RMK A01 T02670022  RH  021%=      5-min Rain = 0
KLE1 192137Z 18020KT 27/02 A2977 RMK A01 T02660023  RH  021%=      5-min Rain = 0
KLE1 192138Z 18020KT 27/02 A2977 RMK A01 T02660023  RH  021%=      5-min Rain = 0
KLE1 192139Z 18015KT 27/02 A2977 RMK A01 T02660023  RH  021%=      5-min Rain = 0
KLE1 192140Z 18016KT 27/02 A2977 RMK A01 T02670024  RH  021%=      5-min Rain = 0
KLE1 192141Z 18017KT 27/02 A2977 RMK A01 T02670024  RH  021%=      5-min Rain = 0
KLE1 192142Z 18017KT 27/02 A2977 RMK A01 T02670024  RH  021%=      5-min Rain = 0
KLE1 192143Z 19019KT 27/02 A2977 RMK A01 T02670023  RH  021%=      5-min Rain = 0
KLE1 192144Z 19019KT 27/02 A2977 RMK A01 T02660024  RH  021%=      5-min Rain = 0
KLE1 192145Z 19014KT 27/02 A2977 RMK A01 T02660024  RH  021%=      5-min Rain = 0
KLE1 192146Z 18018KT 27/03 A2977 RMK A01 T02670025  RH  021%=      5-min Rain = 0
KLE1 192147Z 18016KT 27/03 A2977 RMK A01 T02670025  RH  021%=      5-min Rain = 0
KLE1 192148Z 18016KT 27/02 A2977 RMK A01 T02650024  RH  021%=      5-min Rain = 0
KLE1 192149Z 19019KT 27/03 A2977 RMK A01 T02660025  RH  021%=      5-min Rain = 0
KLE1 192150Z 18016KT 27/03 A2977 RMK A01 T02650025  RH  021%=      5-min Rain = 0
KLE1 192151Z 19016G21KT 27/03 A2977 RMK A01 T02660025  RH  021%=      5-min Rain = 0
KLE1 192152Z 19019G24KT 27/03 A2977 RMK A01 T02660025  RH  021%=      5-min Rain = 0
KLE1 192153Z 18016KT 27/03 A2977 RMK A01 T02650025  RH  021%=      5-min Rain = 0
KLE1 192154Z 19016KT 27/03 A2977 RMK A01 T02650026  RH  021%=      5-min Rain = 0
KLE1 192155Z 19017KT 27/03 A2977 RMK A01 T02650026  RH  021%=      5-min Rain = 0
KLE1 192156Z 19017KT 27/03 A2977 RMK A01 T02650026  RH  021%=      5-min Rain = 0
KLE1 192157Z 18015KT 26/03 A2977 RMK A01 T02640026  RH  021%=      5-min Rain = 0
KLE1 192158Z 18014KT 26/03 A2977 RMK A01 T02640026  RH  021%=      5-min Rain = 0
KLE1 192159Z 18015KT 26/03 A2977 RMK A01 T02630027  RH  022%=      5-min Rain = 0
KLE1 192200Z 18014G19KT 26/03 A2977 RMK A01 T02630027  RH  022%=      5-min Rain = 0
KLE1 192201Z 18019KT 26/03 A2977 RMK A01 T02630027  RH  022%=      5-min Rain = 0
KLE1 192202Z 17017KT 26/03 A2977 RMK A01 T02620027  RH  022%=      5-min Rain = 0
KLE1 192203Z 17016KT 26/03 A2977 RMK A01 T02620027  RH  022%=      5-min Rain = 0
KLE1 192204Z 18017KT 26/03 A2977 RMK A01 T02620028  RH  022%=      5-min Rain = 0
KLE1 192205Z 18016KT 26/03 A2977 RMK A01 T02610027  RH  022%=      5-min Rain = 0
KLE1 192206Z 18016KT 26/03 A2977 RMK A01 T02600027  RH  022%=      5-min Rain = 0
KLE1 192207Z 17018KT 26/03 A2977 RMK A01 T02590027  RH  022%=      5-min Rain = 0
KLE1 192208Z 18015KT 26/03 A2977 RMK A01 T02580027  RH  022%=      5-min Rain = 0
KLE1 192209Z 18017KT 26/03 A2977 RMK A01 T02580028  RH  023%=      5-min Rain = 0
KLE1 192210Z 17017KT 26/03 A2977 RMK A01 T02580028  RH  022%=      5-min Rain = 0
KLE1 192211Z 17015KT 26/03 A2977 RMK A01 T02570027  RH  022%=      5-min Rain = 0
KLE1 192212Z 18017KT 26/03 A2977 RMK A01 T02580028  RH  023%=      5-min Rain = 0
KLE1 192213Z 18016KT 26/03 A2977 RMK A01 T02590029  RH  023%=      5-min Rain = 0
KLE1 192214Z 18016KT 26/03 A2977 RMK A01 T02590029  RH  023%=      5-min Rain = 0
KLE1 192215Z 17015G20KT 26/03 A2977 RMK A01 T02590029  RH  023%=      5-min Rain = 0
KLE1 192216Z 18016KT 26/03 A2977 RMK A01 T02590030  RH  023%=      5-min Rain = 0
KLE1 192217Z 18015KT 26/03 A2977 RMK A01 T02580030  RH  023%=      5-min Rain = 0
KLE1 192218Z 18015KT 26/03 A2977 RMK A01 T02580030  RH  023%=      5-min Rain = 0
KLE1 192219Z 17014KT 26/03 A2977 RMK A01 T02580031  RH  023%=      5-min Rain = 0
KLE1 192220Z 18013KT 26/03 A2977 RMK A01 T02580032  RH  023%=      5-min Rain = 0
KLE1 192221Z 18015KT 26/03 A2977 RMK A01 T02580032  RH  023%=      5-min Rain = 0
KLE1 192222Z 17013KT 26/03 A2977 RMK A01 T02570032  RH  023%=      5-min Rain = 0
KLE1 192223Z 17013KT 26/03 A2977 RMK A01 T02570032  RH  023%=      5-min Rain = 0
KLE1 192224Z 17014KT 26/03 A2977 RMK A01 T02570031  RH  023%=      5-min Rain = 0
KLE1 192225Z 17014KT 26/03 A2977 RMK A01 T02560031  RH  023%=      5-min Rain = 0
KLE1 192226Z 17014KT 26/03 A2977 RMK A01 T02560032  RH  023%=      5-min Rain = 0
KLE1 192227Z 17013KT 26/03 A2977 RMK A01 T02560032  RH  023%=      5-min Rain = 0
KLE1 192228Z 17015KT 26/03 A2977 RMK A01 T02550032  RH  023%=      5-min Rain = 0
KLE1 192229Z 17014KT 26/03 A2977 RMK A01 T02550032  RH  023%=      5-min Rain = 0
KLE1 192230Z 18012KT 26/03 A2977 RMK A01 T02550032  RH  024%=      5-min Rain = 0
KLE1 192231Z 18013KT 26/03 A2977 RMK A01 T02550032  RH  024%=      5-min Rain = 0
KLE1 192232Z 18013KT 26/03 A2977 RMK A01 T02550032  RH  024%=      5-min Rain = 0
KLE1 192233Z 18013KT 26/03 A2977 RMK A01 T02550032  RH  024%=      5-min Rain = 0
KLE1 192234Z 17015KT 25/03 A2977 RMK A01 T02540032  RH  024%=      5-min Rain = 0
KLE1 192235Z 18017KT 25/03 A2977 RMK A01 T02540031  RH  023%=      5-min Rain = 0
KLE1 192236Z 18017KT 25/03 A2977 RMK A01 T02540030  RH  023%=      5-min Rain = 0
KLE1 192237Z 18015KT 25/03 A2977 RMK A01 T02540030  RH  023%=      5-min Rain = 0
KLE1 192238Z 18015KT 25/03 A2977 RMK A01 T02540030  RH  023%=      5-min Rain = 0
KLE1 192239Z 17014KT 25/03 A2977 RMK A01 T02540030  RH  023%=      5-min Rain = 0
KLE1 192240Z 17016KT 25/03 A2977 RMK A01 T02530029  RH  023%=      5-min Rain = 0
KLE1 192241Z 17017KT 25/03 A2976 RMK A01 T02530028  RH  023%=      5-min Rain = 0
KLE1 192242Z 17015KT 25/03 A2977 RMK A01 T02530029  RH  023%=      5-min Rain = 0
KLE1 192243Z 17012KT 25/03 A2977 RMK A01 T02520028  RH  023%=      5-min Rain = 0
KLE1 192244Z 17014KT 25/03 A2977 RMK A01 T02520029  RH  023%=      5-min Rain = 0
KLE1 192245Z 17014KT 25/03 A2977 RMK A01 T02510029  RH  024%=      5-min Rain = 0
KLE1 192246Z 17014KT 25/03 A2977 RMK A01 T02500029  RH  024%=      5-min Rain = 0
KLE1 192247Z 17015KT 25/03 A2977 RMK A01 T02500029  RH  024%=      5-min Rain = 0
KLE1 192248Z 18015KT 25/03 A2977 RMK A01 T02490028  RH  024%=      5-min Rain = 0
KLE1 192249Z 17013KT 25/03 A2977 RMK A01 T02500028  RH  024%=      5-min Rain = 0
KLE1 192250Z 18015KT 25/03 A2977 RMK A01 T02490028  RH  024%=      5-min Rain = 0
KLE1 192251Z 18015KT 25/03 A2977 RMK A01 T02490028  RH  024%=      5-min Rain = 0
KLE1 192252Z 17013KT 25/03 A2977 RMK A01 T02490028  RH  024%=      5-min Rain = 0
KLE1 192253Z 17015KT 25/03 A2977 RMK A01 T02480028  RH  024%=      5-min Rain = 0
KLE1 192254Z 18014KT 25/03 A2977 RMK A01 T02480028  RH  024%=      5-min Rain = 0
KLE1 192255Z 17016KT 25/03 A2977 RMK A01 T02470028  RH  024%=      5-min Rain = 0
KLE1 192256Z 17013KT 25/03 A2977 RMK A01 T02470028  RH  024%=      5-min Rain = 0
KLE1 192257Z 17014KT 25/03 A2977 RMK A01 T02460028  RH  024%=      5-min Rain = 0
KLE1 192258Z 17013KT 25/03 A2977 RMK A01 T02460028  RH  024%=      5-min Rain = 0
KLE1 192259Z 17012KT 25/03 A2977 RMK A01 T02450028  RH  024%=      5-min Rain = 0
KLE1 192300Z 17012KT 25/03 A2977 RMK A01 T02450028  RH  024%=      5-min Rain = 0
KLE1 192301Z 17012KT 24/03 A2977 RMK A01 T02440028  RH  024%=      5-min Rain = 0
KLE1 192302Z 17012KT 24/03 A2977 RMK A01 T02440028  RH  024%=      5-min Rain = 0
KLE1 192303Z 17012KT 24/03 A2977 RMK A01 T02440028  RH  025%=      5-min Rain = 0
KLE1 192304Z 17013KT 24/03 A2977 RMK A01 T02430028  RH  025%=      5-min Rain = 0
KLE1 192305Z 17010KT 24/03 A2977 RMK A01 T02430028  RH  025%=      5-min Rain = 0
KLE1 192306Z 17010KT 24/03 A2977 RMK A01 T02410028  RH  025%=      5-min Rain = 0
KLE1 192307Z 17011KT 24/03 A2977 RMK A01 T02410029  RH  025%=      5-min Rain = 0
KLE1 192308Z 17010KT 24/03 A2977 RMK A01 T02390028  RH  025%=      5-min Rain = 0
KLE1 192309Z 17011KT 24/03 A2977 RMK A01 T02380028  RH  025%=      5-min Rain = 0
KLE1 192310Z 17012KT 24/03 A2977 RMK A01 T02380028  RH  025%=      5-min Rain = 0
KLE1 192311Z 17011KT 24/03 A2977 RMK A01 T02380028  RH  025%=      5-min Rain = 0
KLE1 192312Z 17011KT 24/03 A2977 RMK A01 T02380029  RH  026%=      5-min Rain = 0
KLE1 192313Z 17011KT 24/03 A2977 RMK A01 T02380029  RH  026%=      5-min Rain = 0
KLE1 192314Z 17012KT 24/03 A2977 RMK A01 T02370029  RH  026%=      5-min Rain = 0
KLE1 192315Z 17011KT 24/03 A2977 RMK A01 T02360029  RH  026%=      5-min Rain = 0
KLE1 192316Z 17009KT 24/03 A2977 RMK A01 T02360029  RH  026%=      5-min Rain = 0
KLE1 192317Z 17010KT 23/03 A2977 RMK A01 T02340029  RH  026%=      5-min Rain = 0
KLE1 192318Z 17010KT 23/03 A2977 RMK A01 T02340029  RH  026%=      5-min Rain = 0
KLE1 192319Z 17009KT 23/03 A2977 RMK A01 T02330029  RH  026%=      5-min Rain = 0
KLE1 192320Z 16010KT 23/03 A2977 RMK A01 T02310028  RH  026%=      5-min Rain = 0
KLE1 192321Z 16010KT 23/03 A2977 RMK A01 T02300028  RH  027%=      5-min Rain = 0
KLE1 192322Z 16009KT 23/03 A2977 RMK A01 T02300029  RH  027%=      5-min Rain = 0
KLE1 192323Z 16009KT 23/03 A2977 RMK A01 T02280028  RH  027%=      5-min Rain = 0
KLE1 192324Z 16009KT 23/03 A2977 RMK A01 T02270028  RH  027%=      5-min Rain = 0
KLE1 192325Z 17009KT 23/03 A2977 RMK A01 T02260029  RH  027%=      5-min Rain = 0
KLE1 192326Z 16010KT 23/03 A2977 RMK A01 T02260028  RH  027%=      5-min Rain = 0
KLE1 192327Z 16010KT 23/03 A2977 RMK A01 T02260029  RH  027%=      5-min Rain = 0
KLE1 192328Z 17010KT 23/03 A2977 RMK A01 T02260029  RH  027%=      5-min Rain = 0
KLE1 192329Z 17010KT 23/03 A2977 RMK A01 T02260029  RH  027%=      5-min Rain = 0
KLE1 192330Z 17011KT 23/03 A2977 RMK A01 T02260029  RH  027%=      5-min Rain = 0
KLE1 192331Z 17011KT 23/03 A2977 RMK A01 T02260029  RH  027%=      5-min Rain = 0
KLE1 192332Z 16011KT 23/03 A2977 RMK A01 T02260029  RH  028%=      5-min Rain = 0
KLE1 192333Z 16010KT 23/03 A2977 RMK A01 T02260029  RH  028%=      5-min Rain = 0
KLE1 192334Z 16009KT 23/03 A2977 RMK A01 T02260030  RH  028%=      5-min Rain = 0
KLE1 192335Z 16009KT 22/03 A2977 RMK A01 T02240028  RH  028%=      5-min Rain = 0
KLE1 192336Z 16009KT 22/03 A2977 RMK A01 T02220028  RH  028%=      5-min Rain = 0
KLE1 192337Z 16010KT 22/03 A2977 RMK A01 T02200028  RH  028%=      5-min Rain = 0
KLE1 192338Z 16010KT 22/03 A2977 RMK A01 T02190028  RH  028%=      5-min Rain = 0
KLE1 192339Z 16009KT 22/03 A2977 RMK A01 T02180028  RH  028%=      5-min Rain = 0
KLE1 192340Z 16009KT 22/03 A2977 RMK A01 T02170028  RH  029%=      5-min Rain = 0
KLE1 192341Z 15010KT 22/03 A2977 RMK A01 T02160027  RH  029%=      5-min Rain = 0
KLE1 192342Z 15009KT 22/03 A2977 RMK A01 T02160027  RH  029%=      5-min Rain = 0
KLE1 192343Z 15009KT 22/03 A2977 RMK A01 T02150027  RH  029%=      5-min Rain = 0
KLE1 192344Z 15009KT 22/03 A2977 RMK A01 T02150027  RH  029%=      5-min Rain = 0
KLE1 192345Z 15009KT 21/03 A2977 RMK A01 T02140027  RH  029%=      5-min Rain = 0
KLE1 192346Z 15010KT 21/03 A2977 RMK A01 T02130027  RH  029%=      5-min Rain = 0
KLE1 192347Z 15009KT 21/03 A2977 RMK A01 T02130028  RH  029%=      5-min Rain = 0
KLE1 192348Z 15009KT 21/03 A2977 RMK A01 T02130028  RH  029%=      5-min Rain = 0
KLE1 192349Z 15009KT 21/03 A2977 RMK A01 T02130028  RH  029%=      5-min Rain = 0
KLE1 192350Z 15008KT 21/03 A2977 RMK A01 T02130028  RH  030%=      5-min Rain = 0
KLE1 192351Z 15009KT 21/03 A2977 RMK A01 T02120028  RH  030%=      5-min Rain = 0
KLE1 192352Z 15009KT 21/03 A2977 RMK A01 T02110028  RH  030%=      5-min Rain = 0
KLE1 192353Z 15009KT 21/03 A2977 RMK A01 T02090028  RH  030%=      5-min Rain = 0
KLE1 192354Z 15009KT 21/03 A2977 RMK A01 T02090028  RH  030%=      5-min Rain = 0
KLE1 192355Z 15009KT 21/03 A2977 RMK A01 T02090029  RH  030%=      5-min Rain = 0
KLE1 192356Z 15009KT 21/03 A2977 RMK A01 T02090029  RH  030%=      5-min Rain = 0
KLE1 192357Z 15009KT 21/03 A2977 RMK A01 T02090029  RH  031%=      5-min Rain = 0
KLE1 192358Z 15009KT 21/03 A2977 RMK A01 T02080029  RH  031%=      5-min Rain = 0
KLE1 192359Z 15009KT 21/03 A2977 RMK A01 T02070029  RH  031%=      5-min Rain = 0
KLE1 200000Z 15009KT 21/03 A2977 RMK A01 T02070029  RH  031%=      5-min Rain = 0
KLE1 200001Z 15009KT 21/03 A2977 RMK A01 T02070030  RH  031%=      5-min Rain = 0
KLE1 200002Z 15009KT 21/03 A2977 RMK A01 T02060030  RH  031%=      5-min Rain = 0
KLE1 200003Z 14008KT 21/03 A2977 RMK A01 T02060029  RH  031%=      5-min Rain = 0
KLE1 200004Z 14008KT 21/03 A2977 RMK A01 T02050029  RH  031%=      5-min Rain = 0
KLE1 200005Z 14008KT 20/03 A2977 RMK A01 T02040029  RH  031%=      5-min Rain = 0
KLE1 200006Z 14009KT 20/03 A2978 RMK A01 T02030029  RH  032%=      5-min Rain = 0
KLE1 200007Z 14009KT 20/03 A2978 RMK A01 T02010029  RH  032%=      5-min Rain = 0
KLE1 200008Z 14008KT 20/03 A2978 RMK A01 T02010030  RH  032%=      5-min Rain = 0
KLE1 200009Z 14009KT 20/03 A2978 RMK A01 T02010030  RH  032%=      5-min Rain = 0
KLE1 200010Z 14009KT 20/03 A2978 RMK A01 T02010032  RH  032%=      5-min Rain = 0
KLE1 200011Z 14008KT 20/03 A2978 RMK A01 T02020032  RH  033%=      5-min Rain = 0
KLE1 200012Z 14008KT 20/03 A2978 RMK A01 T02010032  RH  033%=      5-min Rain = 0
KLE1 200013Z 14009KT 20/03 A2978 RMK A01 T01990031  RH  033%=      5-min Rain = 0
KLE1 200014Z 14009KT 20/03 A2978 RMK A01 T01980032  RH  033%=      5-min Rain = 0
KLE1 200015Z 14009KT 20/03 A2978 RMK A01 T01980032  RH  033%=      5-min Rain = 0
KLE1 200016Z 14010KT 20/03 A2978 RMK A01 T01980032  RH  033%=      5-min Rain = 0
KLE1 200017Z 14009KT 20/03 A2978 RMK A01 T01970032  RH  033%=      5-min Rain = 0
KLE1 200018Z 14009KT 20/03 A2978 RMK A01 T01970032  RH  033%=      5-min Rain = 0
KLE1 200019Z 14009KT 20/03 A2978 RMK A01 T01960032  RH  034%=      5-min Rain = 0
KLE1 200020Z 14009KT 20/03 A2978 RMK A01 T01960032  RH  034%=      5-min Rain = 0
KLE1 200021Z 14009KT 20/03 A2978 RMK A01 T01950032  RH  034%=      5-min Rain = 0
KLE1 200022Z 14009KT 20/03 A2978 RMK A01 T01950033  RH  034%=      5-min Rain = 0
KLE1 200023Z 14009KT 19/03 A2978 RMK A01 T01940032  RH  034%=      5-min Rain = 0
KLE1 200024Z 14009KT 19/03 A2978 RMK A01 T01940033  RH  034%=      5-min Rain = 0
KLE1 200025Z 14009KT 19/03 A2978 RMK A01 T01930033  RH  035%=      5-min Rain = 0
KLE1 200026Z 13009KT 19/03 A2978 RMK A01 T01920033  RH  035%=      5-min Rain = 0
KLE1 200027Z 13009KT 19/03 A2978 RMK A01 T01910034  RH  035%=      5-min Rain = 0
KLE1 200028Z 13008KT 19/03 A2978 RMK A01 T01890033  RH  035%=      5-min Rain = 0
KLE1 200029Z 13008KT 19/03 A2978 RMK A01 T01890034  RH  036%=      5-min Rain = 0
KLE1 200030Z 12008KT 19/03 A2978 RMK A01 T01880033  RH  036%=      5-min Rain = 0
KLE1 200031Z 12007KT 19/03 A2978 RMK A01 T01870033  RH  036%=      5-min Rain = 0
KLE1 200032Z 12007KT 19/03 A2978 RMK A01 T01860032  RH  036%=      5-min Rain = 0
KLE1 200033Z 12008KT 19/03 A2978 RMK A01 T01860031  RH  036%=      5-min Rain = 0
KLE1 200034Z 12007KT 19/03 A2978 RMK A01 T01860031  RH  036%=      5-min Rain = 0
KLE1 200035Z 12007KT 19/03 A2978 RMK A01 T01860030  RH  035%=      5-min Rain = 0
KLE1 200036Z 11007KT 19/03 A2978 RMK A01 T01860030  RH  035%=      5-min Rain = 0
KLE1 200037Z 11007KT 19/03 A2978 RMK A01 T01850029  RH  035%=      5-min Rain = 0
KLE1 200038Z 11007KT 19/03 A2978 RMK A01 T01860029  RH  035%=      5-min Rain = 0
KLE1 200039Z 11007KT 19/03 A2978 RMK A01 T01850028  RH  035%=      5-min Rain = 0
KLE1 200040Z 11007KT 18/03 A2978 RMK A01 T01840028  RH  035%=      5-min Rain = 0
KLE1 200041Z 11007KT 18/03 A2978 RMK A01 T01830028  RH  036%=      5-min Rain = 0
KLE1 200042Z 11008KT 18/03 A2978 RMK A01 T01820028  RH  036%=      5-min Rain = 0
KLE1 200043Z 11007KT 18/03 A2978 RMK A01 T01810027  RH  036%=      5-min Rain = 0
KLE1 200044Z 11007KT 18/03 A2978 RMK A01 T01800028  RH  036%=      5-min Rain = 0
KLE1 200045Z 11007KT 18/03 A2978 RMK A01 T01790028  RH  036%=      5-min Rain = 0
KLE1 200046Z 11007KT 18/03 A2978 RMK A01 T01790028  RH  037%=      5-min Rain = 0
KLE1 200047Z 11007KT 18/03 A2978 RMK A01 T01780028  RH  037%=      5-min Rain = 0
KLE1 200048Z 11007KT 18/03 A2978 RMK A01 T01790029  RH  037%=      5-min Rain = 0
KLE1 200049Z 11007KT 18/03 A2978 RMK A01 T01780029  RH  037%=      5-min Rain = 0
KLE1 200050Z 12007KT 18/03 A2978 RMK A01 T01780029  RH  037%=      5-min Rain = 0
KLE1 200051Z 12007KT 18/03 A2978 RMK A01 T01780030  RH  037%=      5-min Rain = 0
KLE1 200052Z 12007KT 18/03 A2978 RMK A01 T01780030  RH  037%=      5-min Rain = 0
KLE1 200053Z 12007KT 18/03 A2978 RMK A01 T01780030  RH  037%=      5-min Rain = 0
KLE1 200054Z 12007KT 18/03 A2978 RMK A01 T01770031  RH  038%=      5-min Rain = 0
KLE1 200055Z 11007KT 18/03 A2978 RMK A01 T01770031  RH  038%=      5-min Rain = 0
KLE1 200056Z 12007KT 18/03 A2978 RMK A01 T01770032  RH  038%=      5-min Rain = 0
KLE1 200057Z 11007KT 18/03 A2978 RMK A01 T01770032  RH  038%=      5-min Rain = 0
KLE1 200058Z 12007KT 18/03 A2978 RMK A01 T01770032  RH  038%=      5-min Rain = 0
KLE1 200059Z 11007KT 18/03 A2978 RMK A01 T01770032  RH  038%=      5-min Rain = 0
KLE1 200100Z 11007KT 18/03 A2978 RMK A01 T01760033  RH  038%=      5-min Rain = 0
KLE1 200101Z 11007KT 18/03 A2978 RMK A01 T01760033  RH  038%=      5-min Rain = 0
KLE1 200102Z 11007KT 18/03 A2978 RMK A01 T01760033  RH  039%=      5-min Rain = 0
KLE1 200103Z 12007KT 18/03 A2978 RMK A01 T01750033  RH  039%=      5-min Rain = 0
KLE1 200104Z 12007KT 17/03 A2978 RMK A01 T01740033  RH  039%=      5-min Rain = 0
KLE1 200105Z 11007KT 17/03 A2978 RMK A01 T01740034  RH  039%=      5-min Rain = 0
KLE1 200106Z 11007KT 17/03 A2978 RMK A01 T01740034  RH  039%=      5-min Rain = 0
KLE1 200107Z 11007KT 17/03 A2978 RMK A01 T01730034  RH  039%=      5-min Rain = 0
KLE1 200108Z 11007KT 17/03 A2978 RMK A01 T01720034  RH  040%=      5-min Rain = 0
KLE1 200109Z 11007KT 17/03 A2978 RMK A01 T01720034  RH  040%=      5-min Rain = 0
KLE1 200110Z 11007KT 17/03 A2978 RMK A01 T01710034  RH  040%=      5-min Rain = 0
KLE1 200111Z 12007KT 17/03 A2978 RMK A01 T01710034  RH  040%=      5-min Rain = 0
KLE1 200112Z 11007KT 17/03 A2978 RMK A01 T01700034  RH  040%=      5-min Rain = 0
KLE1 200113Z 11007KT 17/03 A2978 RMK A01 T01690034  RH  040%=      5-min Rain = 0
KLE1 200114Z 11007KT 17/03 A2978 RMK A01 T01690034  RH  041%=      5-min Rain = 0
KLE1 200115Z 11007KT 17/03 A2978 RMK A01 T01680034  RH  041%=      5-min Rain = 0
KLE1 200116Z 11007KT 17/03 A2978 RMK A01 T01670034  RH  041%=      5-min Rain = 0
KLE1 200117Z 11007KT 17/03 A2978 RMK A01 T01660034  RH  041%=      5-min Rain = 0
KLE1 200118Z 11007KT 17/04 A2978 RMK A01 T01660035  RH  041%=      5-min Rain = 0
KLE1 200119Z 10007KT 17/03 A2978 RMK A01 T01650034  RH  042%=      5-min Rain = 0
KLE1 200120Z 10007KT 16/04 A2978 RMK A01 T01640035  RH  042%=      5-min Rain = 0
KLE1 200121Z 10007KT 16/04 A2978 RMK A01 T01640035  RH  042%=      5-min Rain = 0
KLE1 200122Z 11007KT 16/04 A2978 RMK A01 T01640035  RH  042%=      5-min Rain = 0
KLE1 200123Z 11007KT 16/04 A2978 RMK A01 T01640035  RH  042%=      5-min Rain = 0
KLE1 200124Z 11007KT 16/04 A2978 RMK A01 T01640035  RH  042%=      5-min Rain = 0
KLE1 200125Z 11006KT 16/04 A2978 RMK A01 T01640035  RH  042%=      5-min Rain = 0
KLE1 200126Z 10006KT 16/04 A2978 RMK A01 T01640035  RH  042%=      5-min Rain = 0
KLE1 200127Z 10006KT 16/04 A2978 RMK A01 T01640035  RH  042%=      5-min Rain = 0
KLE1 200128Z 10007KT 16/04 A2978 RMK A01 T01640035  RH  042%=      5-min Rain = 0
KLE1 200129Z 10007KT 16/04 A2978 RMK A01 T01640036  RH  042%=      5-min Rain = 0
KLE1 200130Z 10007KT 16/04 A2978 RMK A01 T01640036  RH  042%=      5-min Rain = 0
KLE1 200131Z 09007KT 17/04 A2978 RMK A01 T01650036  RH  042%=      5-min Rain = 0
KLE1 200132Z 10007KT 16/04 A2978 RMK A01 T01640036  RH  042%=      5-min Rain = 0
KLE1 200133Z 10006KT 16/04 A2978 RMK A01 T01640036  RH  042%=      5-min Rain = 0
KLE1 200134Z 10006KT 16/04 A2978 RMK A01 T01640036  RH  042%=      5-min Rain = 0
KLE1 200135Z 10006KT 16/04 A2978 RMK A01 T01640036  RH  043%=      5-min Rain = 0
KLE1 200136Z 09006KT 16/04 A2978 RMK A01 T01640036  RH  043%=      5-min Rain = 0
KLE1 200137Z 09006KT 16/04 A2978 RMK A01 T01640036  RH  043%=      5-min Rain = 0
KLE1 200138Z 09007KT 16/04 A2978 RMK A01 T01630036  RH  043%=      5-min Rain = 0
KLE1 200139Z 09007KT 16/04 A2978 RMK A01 T01610035  RH  043%=      5-min Rain = 0
KLE1 200140Z 09007KT 16/04 A2978 RMK A01 T01600035  RH  043%=      5-min Rain = 0
KLE1 200141Z 09007KT 16/04 A2978 RMK A01 T01580035  RH  044%=      5-min Rain = 0
KLE1 200142Z 10007KT 16/04 A2978 RMK A01 T01570036  RH  044%=      5-min Rain = 0
KLE1 200143Z 09007KT 16/04 A2978 RMK A01 T01580037  RH  044%=      5-min Rain = 0
KLE1 200144Z 09007KT 16/04 A2978 RMK A01 T01590037  RH  044%=      5-min Rain = 0
KLE1 200145Z 09007KT 16/04 A2978 RMK A01 T01600037  RH  044%=      5-min Rain = 0
KLE1 200146Z 09006KT 16/04 A2978 RMK A01 T01600036  RH  044%=      5-min Rain = 0
KLE1 200147Z 09007KT 16/04 A2978 RMK A01 T01590036  RH  044%=      5-min Rain = 0
KLE1 200148Z 09007KT 16/04 A2978 RMK A01 T01590036  RH  044%=      5-min Rain = 0
KLE1 200149Z 09007KT 16/04 A2978 RMK A01 T01580036  RH  044%=      5-min Rain = 0
KLE1 200150Z 09007KT 16/04 A2978 RMK A01 T01580036  RH  044%=      5-min Rain = 0
KLE1 200151Z 10007KT 16/04 A2978 RMK A01 T01580035  RH  044%=      5-min Rain = 0
KLE1 200152Z 10007KT 16/04 A2978 RMK A01 T01580036  RH  044%=      5-min Rain = 0
KLE1 200153Z 10007KT 16/04 A2979 RMK A01 T01580035  RH  044%=      5-min Rain = 0
KLE1 200154Z 10007KT 16/04 A2979 RMK A01 T01570035  RH  044%=      5-min Rain = 0
KLE1 200155Z 10007KT 16/04 A2979 RMK A01 T01570036  RH  044%=      5-min Rain = 0
KLE1 200156Z 11008KT 16/04 A2979 RMK A01 T01570036  RH  044%=      5-min Rain = 0
KLE1 200157Z 10008KT 16/04 A2979 RMK A01 T01570036  RH  044%=      5-min Rain = 0
KLE1 200158Z 11007KT 16/04 A2979 RMK A01 T01570036  RH  044%=      5-min Rain = 0
KLE1 200159Z 11007KT 16/04 A2979 RMK A01 T01570036  RH  044%=      5-min Rain = 0
KLE1 200200Z 11008KT 16/04 A2979 RMK A01 T01570036  RH  044%=      5-min Rain = 0
KLE1 200201Z 11008KT 16/04 A2979 RMK A01 T01570036  RH  045%=      5-min Rain = 0
KLE1 200202Z 11008KT 16/04 A2979 RMK A01 T01560037  RH  045%=      5-min Rain = 0
KLE1 200203Z 11008KT 16/04 A2979 RMK A01 T01560037  RH  045%=      5-min Rain = 0
KLE1 200204Z 11008KT 16/04 A2979 RMK A01 T01560037  RH  045%=      5-min Rain = 0
KLE1 200205Z 11008KT 16/04 A2979 RMK A01 T01560037  RH  045%=      5-min Rain = 0
KLE1 200206Z 11008KT 16/04 A2979 RMK A01 T01560038  RH  045%=      5-min Rain = 0
KLE1 200207Z 11008KT 16/04 A2979 RMK A01 T01560038  RH  045%=      5-min Rain = 0
KLE1 200208Z 11008KT 16/04 A2979 RMK A01 T01560038  RH  045%=      5-min Rain = 0
KLE1 200209Z 11008KT 16/04 A2979 RMK A01 T01560038  RH  045%=      5-min Rain = 0
KLE1 200210Z 11008KT 16/04 A2979 RMK A01 T01560039  RH  046%=      5-min Rain = 0
KLE1 200211Z 11008KT 16/04 A2979 RMK A01 T01550038  RH  046%=      5-min Rain = 0
KLE1 200212Z 10008KT 16/04 A2979 RMK A01 T01550038  RH  046%=      5-min Rain = 0
KLE1 200213Z 10008KT 15/04 A2979 RMK A01 T01540038  RH  046%=      5-min Rain = 0
KLE1 200214Z 10008KT 15/04 A2979 RMK A01 T01540038  RH  046%=      5-min Rain = 0
KLE1 200215Z 10008KT 15/04 A2979 RMK A01 T01530038  RH  046%=      5-min Rain = 0
KLE1 200216Z 10008KT 15/04 A2979 RMK A01 T01530039  RH  046%=      5-min Rain = 0
KLE1 200217Z 10008KT 15/04 A2979 RMK A01 T01530039  RH  046%=      5-min Rain = 0
KLE1 200218Z 10008KT 15/04 A2979 RMK A01 T01530039  RH  046%=      5-min Rain = 0
KLE1 200219Z 10008KT 15/04 A2979 RMK A01 T01530039  RH  046%=      5-min Rain = 0
KLE1 200220Z 10007KT 15/04 A2979 RMK A01 T01530039  RH  046%=      5-min Rain = 0
KLE1 200221Z 10007KT 15/04 A2979 RMK A01 T01530039  RH  047%=      5-min Rain = 0
KLE1 200222Z 10007KT 15/04 A2979 RMK A01 T01520039  RH  047%=      5-min Rain = 0
KLE1 200223Z 10008KT 15/04 A2979 RMK A01 T01520039  RH  047%=      5-min Rain = 0
KLE1 200224Z 10008KT 15/04 A2979 RMK A01 T01520039  RH  047%=      5-min Rain = 0
KLE1 200225Z 11008KT 15/04 A2979 RMK A01 T01520039  RH  047%=      5-min Rain = 0
KLE1 200226Z 10008KT 15/04 A2979 RMK A01 T01520039  RH  047%=      5-min Rain = 0
KLE1 200227Z 10008KT 15/04 A2979 RMK A01 T01520039  RH  047%=      5-min Rain = 0
KLE1 200228Z 10008KT 15/04 A2979 RMK A01 T01520039  RH  047%=      5-min Rain = 0
KLE1 200229Z 10008KT 15/04 A2979 RMK A01 T01520039  RH  047%=      5-min Rain = 0
KLE1 200230Z 10008KT 15/04 A2979 RMK A01 T01510038  RH  047%=      5-min Rain = 0
KLE1 200231Z 10008KT 15/04 A2979 RMK A01 T01510038  RH  047%=      5-min Rain = 0
KLE1 200232Z 10008KT 15/04 A2978 RMK A01 T01510039  RH  047%=      5-min Rain = 0
KLE1 200233Z 10008KT 15/04 A2978 RMK A01 T01500038  RH  047%=      5-min Rain = 0
KLE1 200234Z 10008KT 15/04 A2978 RMK A01 T01500038  RH  047%=      5-min Rain = 0
KLE1 200235Z 10008KT 15/04 A2978 RMK A01 T01490038  RH  047%=      5-min Rain = 0
KLE1 200236Z 10008KT 15/04 A2978 RMK A01 T01490038  RH  047%=      5-min Rain = 0
KLE1 200237Z 10008KT 15/04 A2978 RMK A01 T01480038  RH  048%=      5-min Rain = 0
KLE1 200238Z 10008KT 15/04 A2978 RMK A01 T01480038  RH  048%=      5-min Rain = 0
KLE1 200239Z 10009KT 15/04 A2978 RMK A01 T01470037  RH  048%=      5-min Rain = 0
KLE1 200240Z 10009KT 15/04 A2978 RMK A01 T01470037  RH  048%=      5-min Rain = 0
KLE1 200241Z 10008KT 15/04 A2978 RMK A01 T01460037  RH  048%=      5-min Rain = 0
KLE1 200242Z 10008KT 15/04 A2979 RMK A01 T01460038  RH  048%=      5-min Rain = 0
KLE1 200243Z 10009KT 15/04 A2979 RMK A01 T01450037  RH  048%=      5-min Rain = 0
KLE1 200244Z 10008KT 15/04 A2979 RMK A01 T01450037  RH  048%=      5-min Rain = 0
KLE1 200245Z 11009KT 15/04 A2979 RMK A01 T01450037  RH  048%=      5-min Rain = 0
KLE1 200246Z 11008KT 15/04 A2979 RMK A01 T01450037  RH  048%=      5-min Rain = 0
KLE1 200247Z 11008KT 15/04 A2978 RMK A01 T01450037  RH  048%=      5-min Rain = 0
KLE1 200248Z 11008KT 15/04 A2979 RMK A01 T01450036  RH  048%=      5-min Rain = 0
KLE1 200249Z 11008KT 15/04 A2979 RMK A01 T01450036  RH  048%=      5-min Rain = 0
KLE1 200250Z 11008KT 14/04 A2979 RMK A01 T01440036  RH  048%=      5-min Rain = 0
KLE1 200251Z 11009KT 14/04 A2979 RMK A01 T01430036  RH  048%=      5-min Rain = 0
KLE1 200252Z 11008KT 14/04 A2979 RMK A01 T01430036  RH  049%=      5-min Rain = 0
KLE1 200253Z 11008KT 14/04 A2979 RMK A01 T01430036  RH  049%=      5-min Rain = 0
KLE1 200254Z 11008KT 14/04 A2979 RMK A01 T01420035  RH  049%=      5-min Rain = 0
KLE1 200255Z 11008KT 14/04 A2979 RMK A01 T01420035  RH  049%=      5-min Rain = 0
KLE1 200256Z 11008KT 14/04 A2979 RMK A01 T01410035  RH  049%=      5-min Rain = 0
KLE1 200257Z 11008KT 14/04 A2979 RMK A01 T01410035  RH  049%=      5-min Rain = 0
KLE1 200258Z 11008KT 14/04 A2979 RMK A01 T01410035  RH  049%=      5-min Rain = 0
KLE1 200259Z 11008KT 14/04 A2979 RMK A01 T01410035  RH  049%=      5-min Rain = 0
KLE1 200300Z 11007KT 14/04 A2979 RMK A01 T01400035  RH  049%=      5-min Rain = 0
KLE1 200301Z 11007KT 14/04 A2979 RMK A01 T01400035  RH  049%=      5-min Rain = 0
KLE1 200302Z 11007KT 14/04 A2979 RMK A01 T01400035  RH  049%=      5-min Rain = 0
KLE1 200303Z 11007KT 14/04 A2979 RMK A01 T01400035  RH  049%=      5-min Rain = 0
KLE1 200304Z 11007KT 14/04 A2979 RMK A01 T01410035  RH  049%=      5-min Rain = 0
KLE1 200305Z 11006KT 14/04 A2979 RMK A01 T01400035  RH  049%=      5-min Rain = 0
KLE1 200306Z 11007KT 14/04 A2979 RMK A01 T01400035  RH  049%=      5-min Rain = 0
KLE1 200307Z 11007KT 14/04 A2979 RMK A01 T01400035  RH  049%=      5-min Rain = 0
KLE1 200308Z 11007KT 14/04 A2979 RMK A01 T01410036  RH  049%=      5-min Rain = 0
KLE1 200309Z 11007KT 14/04 A2979 RMK A01 T01420036  RH  049%=      5-min Rain = 0
KLE1 200310Z 11007KT 14/04 A2979 RMK A01 T01420036  RH  049%=      5-min Rain = 0
KLE1 200311Z 11007KT 14/04 A2979 RMK A01 T01430036  RH  049%=      5-min Rain = 0
KLE1 200312Z 11007KT 14/04 A2979 RMK A01 T01420036  RH  049%=      5-min Rain = 0
KLE1 200313Z 11007KT 14/04 A2979 RMK A01 T01420035  RH  049%=      5-min Rain = 0
KLE1 200314Z 11007KT 14/04 A2979 RMK A01 T01410035  RH  049%=      5-min Rain = 0
KLE1 200315Z 11007KT 14/04 A2979 RMK A01 T01410035  RH  049%=      5-min Rain = 0
KLE1 200316Z 11007KT 14/04 A2979 RMK A01 T01400035  RH  049%=      5-min Rain = 0
KLE1 200317Z 11007KT 14/03 A2979 RMK A01 T01390034  RH  049%=      5-min Rain = 0
KLE1 200318Z 10007KT 14/04 A2979 RMK A01 T01390035  RH  049%=      5-min Rain = 0
KLE1 200319Z 11007KT 14/04 A2979 RMK A01 T01390035  RH  050%=      5-min Rain = 0
KLE1 200320Z 10007KT 14/04 A2979 RMK A01 T01380035  RH  050%=      5-min Rain = 0
KLE1 200321Z 11007KT 14/04 A2979 RMK A01 T01390036  RH  050%=      5-min Rain = 0
KLE1 200322Z 11007KT 14/04 A2979 RMK A01 T01380035  RH  050%=      5-min Rain = 0
KLE1 200323Z 11007KT 14/04 A2979 RMK A01 T01380036  RH  050%=      5-min Rain = 0
KLE1 200324Z 11007KT 14/04 A2979 RMK A01 T01380036  RH  050%=      5-min Rain = 0
KLE1 200325Z 11007KT 14/04 A2979 RMK A01 T01380036  RH  050%=      5-min Rain = 0
KLE1 200326Z 11007KT 14/04 A2979 RMK A01 T01380037  RH  050%=      5-min Rain = 0
KLE1 200327Z 11007KT 14/04 A2979 RMK A01 T01390037  RH  050%=      5-min Rain = 0
KLE1 200328Z 11007KT 14/04 A2979 RMK A01 T01390037  RH  050%=      5-min Rain = 0
KLE1 200329Z 11007KT 14/04 A2979 RMK A01 T01390037  RH  050%=      5-min Rain = 0
KLE1 200330Z 11007KT 14/04 A2979 RMK A01 T01390037  RH  050%=      5-min Rain = 0
KLE1 200331Z 11007KT 14/04 A2979 RMK A01 T01390037  RH  050%=      5-min Rain = 0
KLE1 200332Z 11008KT 14/04 A2979 RMK A01 T01380037  RH  050%=      5-min Rain = 0
KLE1 200333Z 11007KT 14/04 A2979 RMK A01 T01390038  RH  050%=      5-min Rain = 0
KLE1 200334Z 11007KT 14/04 A2979 RMK A01 T01380038  RH  051%=      5-min Rain = 0
KLE1 200335Z 11007KT 14/04 A2979 RMK A01 T01390038  RH  051%=      5-min Rain = 0
KLE1 200336Z 11007KT 14/04 A2979 RMK A01 T01390039  RH  051%=      5-min Rain = 0
KLE1 200337Z 11008KT 14/04 A2979 RMK A01 T01390039  RH  051%=      5-min Rain = 0
KLE1 200338Z 11008KT 14/04 A2979 RMK A01 T01390039  RH  051%=      5-min Rain = 0
KLE1 200339Z 11007KT 14/04 A2979 RMK A01 T01380039  RH  051%=      5-min Rain = 0
KLE1 200340Z 10007KT 14/04 A2979 RMK A01 T01380039  RH  051%=      5-min Rain = 0
KLE1 200341Z 10007KT 14/04 A2979 RMK A01 T01380038  RH  051%=      5-min Rain = 0
KLE1 200342Z 10007KT 14/04 A2979 RMK A01 T01380039  RH  051%=      5-min Rain = 0
KLE1 200343Z 10007KT 14/04 A2979 RMK A01 T01370038  RH  051%=      5-min Rain = 0
KLE1 200344Z 10007KT 14/04 A2979 RMK A01 T01360039  RH  052%=      5-min Rain = 0
KLE1 200345Z 10008KT 14/04 A2979 RMK A01 T01360038  RH  052%=      5-min Rain = 0
KLE1 200346Z 11008KT 14/04 A2979 RMK A01 T01350039  RH  052%=      5-min Rain = 0
KLE1 200347Z 11008KT 14/04 A2979 RMK A01 T01350039  RH  052%=      5-min Rain = 0
KLE1 200348Z 10007KT 14/04 A2979 RMK A01 T01350039  RH  052%=      5-min Rain = 0
KLE1 200349Z 11007KT 14/04 A2979 RMK A01 T01350039  RH  052%=      5-min Rain = 0
KLE1 200350Z 10007KT 13/04 A2979 RMK A01 T01340039  RH  052%=      5-min Rain = 0
KLE1 200351Z 10007KT 14/04 A2979 RMK A01 T01350039  RH  053%=      5-min Rain = 0
KLE1 200352Z 10007KT 13/04 A2979 RMK A01 T01340039  RH  053%=      5-min Rain = 0
KLE1 200353Z 10008KT 13/04 A2979 RMK A01 T01340039  RH  053%=      5-min Rain = 0
KLE1 200354Z 10007KT 13/04 A2979 RMK A01 T01330039  RH  053%=      5-min Rain = 0
KLE1 200355Z 10007KT 13/04 A2979 RMK A01 T01330040  RH  053%=      5-min Rain = 0
KLE1 200356Z 10007KT 13/04 A2979 RMK A01 T01330040  RH  053%=      5-min Rain = 0
KLE1 200357Z 10008KT 13/04 A2979 RMK A01 T01320040  RH  053%=      5-min Rain = 0
KLE1 200358Z 10008KT 13/04 A2979 RMK A01 T01320040  RH  054%=      5-min Rain = 0
KLE1 200359Z 10008KT 13/04 A2979 RMK A01 T01320040  RH  054%=      5-min Rain = 0
KLE1 200400Z 10008KT 13/04 A2979 RMK A01 T01320040  RH  054%=      5-min Rain = 0
KLE1 200401Z 10008KT 13/04 A2979 RMK A01 T01320041  RH  054%=      5-min Rain = 0
KLE1 200402Z 10008KT 13/04 A2979 RMK A01 T01330041  RH  054%=      5-min Rain = 0
KLE1 200403Z 10008KT 13/04 A2979 RMK A01 T01340041  RH  054%=      5-min Rain = 0
KLE1 200404Z 10008KT 13/04 A2979 RMK A01 T01340042  RH  054%=      5-min Rain = 0
KLE1 200405Z 10007KT 13/04 A2979 RMK A01 T01340042  RH  054%=      5-min Rain = 0
KLE1 200406Z 10008KT 13/04 A2979 RMK A01 T01340042  RH  054%=      5-min Rain = 0
KLE1 200407Z 11008KT 13/04 A2979 RMK A01 T01340042  RH  054%=      5-min Rain = 0
KLE1 200408Z 11008KT 13/04 A2979 RMK A01 T01340042  RH  054%=      5-min Rain = 0
KLE1 200409Z 11008KT 13/04 A2979 RMK A01 T01340042  RH  054%=      5-min Rain = 0
KLE1 200410Z 11008KT 14/04 A2979 RMK A01 T01350043  RH  054%=      5-min Rain = 0
KLE1 200411Z 11008KT 14/04 A2979 RMK A01 T01350043  RH  054%=      5-min Rain = 0
KLE1 200412Z 11008KT 14/04 A2979 RMK A01 T01350043  RH  054%=      5-min Rain = 0
KLE1 200413Z 11008KT 14/04 A2979 RMK A01 T01350043  RH  054%=      5-min Rain = 0
KLE1 200414Z 12008KT 14/04 A2979 RMK A01 T01350044  RH  054%=      5-min Rain = 0
KLE1 200415Z 11008KT 14/04 A2979 RMK A01 T01350044  RH  054%=      5-min Rain = 0
KLE1 200416Z 12009KT 14/04 A2979 RMK A01 T01350044  RH  054%=      5-min Rain = 0
KLE1 200417Z 11009KT 14/05 A2979 RMK A01 T01360045  RH  054%=      5-min Rain = 0
KLE1 200418Z 12009KT 14/05 A2979 RMK A01 T01350045  RH  054%=      5-min Rain = 0
KLE1 200419Z 12009KT 14/05 A2979 RMK A01 T01360045  RH  054%=      5-min Rain = 0
KLE1 200420Z 12009KT 14/05 A2978 RMK A01 T01350046  RH  055%=      5-min Rain = 0
KLE1 200421Z 11009KT 14/05 A2978 RMK A01 T01360047  RH  055%=      5-min Rain = 0
KLE1 200422Z 11009KT 14/05 A2978 RMK A01 T01370047  RH  054%=      5-min Rain = 0
KLE1 200423Z 11008KT 14/05 A2978 RMK A01 T01370047  RH  054%=      5-min Rain = 0
KLE1 200424Z 11008KT 14/05 A2978 RMK A01 T01370046  RH  054%=      5-min Rain = 0
KLE1 200425Z 11008KT 14/05 A2978 RMK A01 T01360045  RH  054%=      5-min Rain = 0
KLE1 200426Z 10008KT 13/05 A2978 RMK A01 T01340045  RH  055%=      5-min Rain = 0
KLE1 200427Z 10008KT 13/05 A2978 RMK A01 T01340045  RH  055%=      5-min Rain = 0
KLE1 200428Z 10008KT 13/05 A2978 RMK A01 T01340045  RH  055%=      5-min Rain = 0
KLE1 200429Z 10008KT 13/05 A2978 RMK A01 T01340045  RH  055%=      5-min Rain = 0
KLE1 200430Z 11008KT 13/05 A2978 RMK A01 T01330045  RH  055%=      5-min Rain = 0
KLE1 200431Z 11008KT 13/05 A2978 RMK A01 T01340045  RH  055%=      5-min Rain = 0
KLE1 200432Z 10008KT 14/05 A2978 RMK A01 T01360046  RH  054%=      5-min Rain = 0
KLE1 200433Z 11007KT 14/05 A2978 RMK A01 T01360045  RH  054%=      5-min Rain = 0
KLE1 200434Z 11007KT 14/05 A2978 RMK A01 T01360045  RH  054%=      5-min Rain = 0
KLE1 200435Z 11007KT 14/05 A2978 RMK A01 T01360045  RH  054%=      5-min Rain = 0
KLE1 200436Z 11008KT 14/05 A2978 RMK A01 T01350045  RH  054%=      5-min Rain = 0
KLE1 200437Z 11008KT 13/05 A2978 RMK A01 T01340045  RH  055%=      5-min Rain = 0
KLE1 200438Z 11009KT 13/05 A2978 RMK A01 T01340045  RH  055%=      5-min Rain = 0
KLE1 200439Z 11009KT 13/05 A2978 RMK A01 T01340046  RH  055%=      5-min Rain = 0
KLE1 200440Z 11009KT 14/05 A2978 RMK A01 T01350047  RH  055%=      5-min Rain = 0
KLE1 200441Z 11009KT 14/05 A2978 RMK A01 T01350047  RH  055%=      5-min Rain = 0
KLE1 200442Z 11009KT 14/05 A2978 RMK A01 T01350047  RH  055%=      5-min Rain = 0
KLE1 200443Z 11009KT 14/05 A2978 RMK A01 T01360047  RH  055%=      5-min Rain = 0
KLE1 200444Z 11009KT 14/05 A2978 RMK A01 T01360047  RH  055%=      5-min Rain = 0
KLE1 200445Z 11009KT 14/05 A2978 RMK A01 T01350047  RH  055%=      5-min Rain = 0
KLE1 200446Z 11008KT 14/05 A2978 RMK A01 T01360047  RH  055%=      5-min Rain = 0
KLE1 200447Z 11008KT 14/05 A2978 RMK A01 T01370048  RH  055%=      5-min Rain = 0
KLE1 200448Z 11008KT 14/05 A2978 RMK A01 T01380048  RH  055%=      5-min Rain = 0
KLE1 200449Z 11008KT 14/05 A2978 RMK A01 T01380048  RH  055%=      5-min Rain = 0
KLE1 200450Z 11008KT 14/05 A2978 RMK A01 T01380048  RH  054%=      5-min Rain = 0
KLE1 200451Z 11008KT 14/05 A2978 RMK A01 T01380048  RH  054%=      5-min Rain = 0
KLE1 200452Z 11008KT 14/05 A2978 RMK A01 T01380048  RH  055%=      5-min Rain = 0
KLE1 200453Z 11007KT 14/05 A2978 RMK A01 T01380049  RH  055%=      5-min Rain = 0
KLE1 200454Z 11008KT 14/05 A2978 RMK A01 T01390049  RH  055%=      5-min Rain = 0
KLE1 200455Z 11008KT 14/05 A2978 RMK A01 T01390050  RH  055%=      5-min Rain = 0
KLE1 200456Z 11008KT 14/05 A2978 RMK A01 T01400050  RH  055%=      5-min Rain = 0
KLE1 200457Z 11008KT 14/05 A2978 RMK A01 T01410051  RH  055%=      5-min Rain = 0
KLE1 200458Z 11009KT 14/05 A2978 RMK A01 T01410051  RH  055%=      5-min Rain = 0
KLE1 200459Z 11008KT 14/05 A2978 RMK A01 T01410051  RH  055%=      5-min Rain = 0
KLE1 200500Z 11008KT 14/05 A2978 RMK A01 T01420052  RH  054%=      5-min Rain = 0
KLE1 200501Z 11009KT 14/05 A2978 RMK A01 T01420051  RH  054%=      5-min Rain = 0
KLE1 200502Z 11008KT 14/05 A2978 RMK A01 T01420052  RH  054%=      5-min Rain = 0
KLE1 200503Z 11008KT 14/05 A2978 RMK A01 T01430052  RH  054%=      5-min Rain = 0
KLE1 200504Z 10008KT 14/05 A2978 RMK A01 T01440052  RH  054%=      5-min Rain = 0
KLE1 200505Z 10008KT 14/05 A2978 RMK A01 T01440052  RH  054%=      5-min Rain = 0
KLE1 200506Z 10008KT 14/05 A2978 RMK A01 T01440052  RH  054%=      5-min Rain = 0
KLE1 200507Z 10008KT 14/05 A2978 RMK A01 T01440053  RH  054%=      5-min Rain = 0
KLE1 200508Z 10008KT 14/05 A2978 RMK A01 T01440053  RH  054%=      5-min Rain = 0
KLE1 200509Z 11008KT 14/05 A2978 RMK A01 T01440052  RH  054%=      5-min Rain = 0
KLE1 200510Z 11007KT 14/05 A2978 RMK A01 T01440053  RH  054%=      5-min Rain = 0
KLE1 200511Z 11007KT 15/05 A2978 RMK A01 T01450053  RH  054%=      5-min Rain = 0
KLE1 200512Z 11008KT 15/05 A2978 RMK A01 T01450053  RH  054%=      5-min Rain = 0
KLE1 200513Z 11008KT 15/05 A2978 RMK A01 T01450053  RH  054%=      5-min Rain = 0
KLE1 200514Z 11008KT 14/05 A2978 RMK A01 T01440053  RH  054%=      5-min Rain = 0
KLE1 200515Z 11008KT 14/05 A2978 RMK A01 T01440053  RH  054%=      5-min Rain = 0
KLE1 200516Z 11008KT 14/05 A2978 RMK A01 T01440053  RH  054%=      5-min Rain = 0
KLE1 200517Z 11008KT 14/05 A2978 RMK A01 T01440053  RH  055%=      5-min Rain = 0
KLE1 200518Z 11008KT 14/05 A2978 RMK A01 T01430053  RH  055%=      5-min Rain = 0
KLE1 200519Z 11008KT 14/05 A2978 RMK A01 T01420053  RH  055%=      5-min Rain = 0
KLE1 200520Z 11008KT 14/05 A2978 RMK A01 T01420053  RH  055%=      5-min Rain = 0
KLE1 200521Z 11007KT 14/05 A2978 RMK A01 T01420053  RH  055%=      5-min Rain = 0
KLE1 200522Z 11008KT 14/05 A2978 RMK A01 T01420053  RH  055%=      5-min Rain = 0
KLE1 200523Z 11007KT 14/05 A2978 RMK A01 T01410053  RH  055%=      5-min Rain = 0
KLE1 200524Z 11007KT 14/05 A2978 RMK A01 T01410053  RH  055%=      5-min Rain = 0
KLE1 200525Z 11007KT 14/05 A2978 RMK A01 T01400053  RH  056%=      5-min Rain = 0
KLE1 200526Z 11006KT 14/05 A2978 RMK A01 T01400053  RH  056%=      5-min Rain = 0
KLE1 200527Z 10006KT 14/05 A2978 RMK A01 T01400053  RH  056%=      5-min Rain = 0
KLE1 200528Z 10006KT 14/05 A2978 RMK A01 T01390053  RH  056%=      5-min Rain = 0
KLE1 200529Z 10006KT 14/05 A2978 RMK A01 T01380053  RH  056%=      5-min Rain = 0
KLE1 200530Z 10006KT 14/05 A2978 RMK A01 T01380053  RH  056%=      5-min Rain = 0
KLE1 200531Z 09006KT 14/05 A2978 RMK A01 T01380053  RH  057%=      5-min Rain = 0
KLE1 200532Z 08005KT 14/05 A2978 RMK A01 T01380053  RH  057%=      5-min Rain = 0
KLE1 200533Z 08005KT 14/05 A2978 RMK A01 T01380053  RH  057%=      5-min Rain = 0
KLE1 200534Z 08005KT 14/05 A2978 RMK A01 T01370052  RH  057%=      5-min Rain = 0
KLE1 200535Z 08005KT 14/05 A2978 RMK A01 T01370052  RH  057%=      5-min Rain = 0
KLE1 200536Z 08006KT 14/05 A2978 RMK A01 T01360052  RH  057%=      5-min Rain = 0
KLE1 200537Z 07006KT 14/05 A2978 RMK A01 T01350052  RH  057%=      5-min Rain = 0
KLE1 200538Z 07006KT 14/05 A2978 RMK A01 T01350051  RH  057%=      5-min Rain = 0
KLE1 200539Z 08006KT 13/05 A2978 RMK A01 T01340052  RH  057%=      5-min Rain = 0
KLE1 200540Z 07006KT 13/05 A2978 RMK A01 T01330051  RH  058%=      5-min Rain = 0
KLE1 200541Z 06006KT 13/05 A2978 RMK A01 T01330052  RH  058%=      5-min Rain = 0
KLE1 200542Z 06006KT 13/05 A2979 RMK A01 T01320051  RH  058%=      5-min Rain = 0
KLE1 200543Z 07006KT 13/05 A2979 RMK A01 T01310051  RH  058%=      5-min Rain = 0
KLE1 200544Z 07005KT 13/05 A2979 RMK A01 T01310051  RH  058%=      5-min Rain = 0
KLE1 200545Z 07006KT 13/05 A2979 RMK A01 T01310051  RH  058%=      5-min Rain = 0
KLE1 200546Z 07006KT 13/05 A2979 RMK A01 T01320052  RH  058%=      5-min Rain = 0
KLE1 200547Z 07006KT 13/05 A2979 RMK A01 T01320051  RH  058%=      5-min Rain = 0
KLE1 200548Z 07006KT 13/05 A2979 RMK A01 T01330052  RH  058%=      5-min Rain = 0
KLE1 200549Z 06006KT 13/05 A2979 RMK A01 T01330052  RH  058%=      5-min Rain = 0
KLE1 200550Z 06005KT 13/05 A2978 RMK A01 T01340052  RH  057%=      5-min Rain = 0
KLE1 200551Z 06005KT 13/05 A2978 RMK A01 T01340051  RH  057%=      5-min Rain = 0
KLE1 200552Z 06005KT 13/05 A2978 RMK A01 T01340051  RH  057%=      5-min Rain = 0
KLE1 200553Z 06006KT 13/05 A2978 RMK A01 T01340051  RH  057%=      5-min Rain = 0
KLE1 200554Z 06006KT 13/05 A2978 RMK A01 T01340052  RH  058%=      5-min Rain = 0
KLE1 200555Z 06006KT 13/05 A2978 RMK A01 T01340052  RH  058%=      5-min Rain = 0
KLE1 200556Z 06006KT 13/05 A2978 RMK A01 T01340052  RH  057%=      5-min Rain = 0
KLE1 200557Z 06006KT 14/05 A2978 RMK A01 T01350052  RH  057%=      5-min Rain = 0
KLE1 200558Z 06006KT 14/05 A2978 RMK A01 T01350052  RH  057%=      5-min Rain = 0
KLE1 200559Z 06005KT 14/05 A2978 RMK A01 T01350052  RH  057%=      5-min Rain = 0

Page generated in 0.0774 seconds.